Time,TemperatureF,DewpointF,PressureIn,WindDirection,WindDirectionDegrees,WindSpeedMPH,WindSpeedGustMPH,Humidity,HourlyPrecipIn,Conditions,Clouds,dailyrainin,SolarRadiationWatts/m^2,SoftwareType,DateUTC
2013-04-24 00:00:00,31.9,23.9,30.17,NW,325,6.0,7.0,72,0.00,,OVC015,0.00,0.00,VWS V14.00,2013-04-24 05:00:00,
2013-04-24 00:03:00,31.8,23.8,30.18,NW,323,3.0,8.0,72,0.00,,OVC015,0.00,0.00,VWS V14.00,2013-04-24 05:03:00,
2013-04-24 00:04:00,31.8,23.8,30.17,NW,321,4.0,8.0,72,0.00,,OVC015,0.00,0.00,VWS V14.00,2013-04-24 05:04:00,
2013-04-24 00:05:00,31.8,23.8,30.17,NW,321,4.0,5.0,72,0.00,,OVC015,0.00,0.00,VWS V14.00,2013-04-24 05:05:00,
2013-04-24 00:08:00,31.8,23.8,30.17,NW,317,5.0,6.0,72,0.00,,OVC015,0.00,0.00,VWS V14.00,2013-04-24 05:08:00,
2013-04-24 00:09:00,31.8,24.1,30.17,NW,317,4.0,4.0,73,0.00,,OVC015,0.00,0.00,VWS V14.00,2013-04-24 05:09:00,
2013-04-24 00:10:00,31.8,24.1,30.17,NW,323,5.0,6.0,73,0.00,,OVC015,0.00,0.00,VWS V14.00,2013-04-24 05:10:00,
2013-04-24 00:13:00,31.7,24.0,30.17,NW,315,3.0,6.0,73,0.00,,OVC015,0.00,0.00,VWS V14.00,2013-04-24 05:13:00,
2013-04-24 00:14:00,31.7,24.0,30.17,NW,321,4.0,4.0,73,0.00,,OVC015,0.00,0.00,VWS V14.00,2013-04-24 05:14:00,
2013-04-24 00:15:00,31.7,24.0,30.17,NW,321,2.0,4.0,73,0.00,,OVC015,0.00,0.00,VWS V14.00,2013-04-24 05:15:00,
2013-04-24 00:18:00,31.7,24.0,30.17,NNW,331,4.0,6.0,73,0.00,,OVC015,0.00,0.00,VWS V14.00,2013-04-24 05:18:00,
2013-04-24 00:19:00,31.6,24.0,30.17,NNW,329,2.0,3.0,73,0.00,,OVC015,0.00,0.00,VWS V14.00,2013-04-24 05:19:00,
2013-04-24 00:20:00,31.6,24.0,30.17,NNW,329,2.0,4.0,73,0.00,,OVC015,0.00,0.00,VWS V14.00,2013-04-24 05:20:00,
2013-04-24 00:23:00,31.5,23.9,30.17,NW,308,5.0,6.0,73,0.00,,OVC015,0.00,0.00,VWS V14.00,2013-04-24 05:23:00,
2013-04-24 00:24:00,31.5,23.9,30.17,NW,319,4.0,5.0,73,0.00,,OVC015,0.00,0.00,VWS V14.00,2013-04-24 05:24:00,
2013-04-24 00:25:00,31.5,23.9,30.17,NW,318,6.0,6.0,73,0.00,,OVC015,0.00,0.00,VWS V14.00,2013-04-24 05:25:00,
2013-04-24 00:28:00,31.5,24.2,30.17,NW,321,6.0,7.0,74,0.00,,OVC015,0.00,0.00,VWS V14.00,2013-04-24 05:28:00,
2013-04-24 00:29:00,31.5,24.2,30.17,NW,321,4.0,5.0,74,0.00,,OVC015,0.00,0.00,VWS V14.00,2013-04-24 05:29:00,
2013-04-24 00:30:00,31.4,24.1,30.17,NW,321,2.0,5.0,74,0.00,,OVC015,0.00,0.00,VWS V14.00,2013-04-24 05:30:00,
2013-04-24 00:34:00,31.4,24.4,30.18,NW,318,3.0,6.0,75,0.00,,OVC015,0.00,0.00,VWS V14.00,2013-04-24 05:34:00,
2013-04-24 00:35:00,31.4,24.4,30.18,NW,324,5.0,6.0,75,0.00,,OVC015,0.00,0.00,VWS V14.00,2013-04-24 05:35:00,
2013-04-24 00:36:00,31.3,24.3,30.18,NW,316,5.0,6.0,75,0.00,,OVC015,0.00,0.00,VWS V14.00,2013-04-24 05:36:00,
2013-04-24 00:39:00,31.2,24.2,30.17,NW,316,2.0,3.0,75,0.00,,OVC015,0.00,0.00,VWS V14.00,2013-04-24 05:39:00,
2013-04-24 00:40:00,31.2,24.2,30.17,NW,316,2.0,4.0,75,0.00,,OVC015,0.00,0.00,VWS V14.00,2013-04-24 05:40:00,
2013-04-24 00:41:00,31.2,24.2,30.17,NW,313,4.0,6.0,75,0.00,,OVC015,0.00,0.00,VWS V14.00,2013-04-24 05:41:00,
2013-04-24 00:44:00,31.2,24.5,30.17,NW,314,3.0,3.0,76,0.00,,OVC015,0.00,0.00,VWS V14.00,2013-04-24 05:44:00,
2013-04-24 00:45:00,31.1,24.4,30.18,North,360,5.0,5.0,76,0.00,,OVC015,0.00,0.00,VWS V14.00,2013-04-24 05:45:00,
2013-04-24 00:46:00,31.1,24.4,30.18,NW,315,2.0,5.0,76,0.00,,OVC015,0.00,0.00,VWS V14.00,2013-04-24 05:46:00,
2013-04-24 00:49:00,31.1,24.4,30.18,WNW,295,5.0,6.0,76,0.00,,OVC015,0.00,0.00,VWS V14.00,2013-04-24 05:49:00,
2013-04-24 00:50:00,31.1,24.4,30.18,NW,321,2.0,7.0,76,0.00,,OVC015,0.00,0.00,VWS V14.00,2013-04-24 05:50:00,
2013-04-24 00:51:00,31.1,24.4,30.18,NW,321,0.0,7.0,76,0.00,,OVC015,0.00,0.00,VWS V14.00,2013-04-24 05:51:00,
2013-04-24 00:54:00,31.1,24.8,30.18,NW,312,2.0,3.0,77,0.00,,OVC015,0.00,0.00,VWS V14.00,2013-04-24 05:54:00,
2013-04-24 00:55:00,31.1,24.8,30.18,NW,312,1.0,3.0,77,0.00,,OVC015,0.00,0.00,VWS V14.00,2013-04-24 05:55:00,
2013-04-24 00:57:00,31.1,24.8,30.18,NW,317,1.0,5.0,77,0.00,,OVC015,0.00,0.00,VWS V14.00,2013-04-24 05:57:00,
2013-04-24 00:59:00,31.0,24.6,30.18,NW,317,1.0,2.0,77,0.00,,OVC015,0.00,0.00,VWS V14.00,2013-04-24 05:59:00,
2013-04-24 01:00:00,31.0,24.6,30.18,NW,317,1.0,2.0,77,0.00,,OVC015,0.00,0.00,VWS V14.00,2013-04-24 06:00:00,
2013-04-24 01:02:00,31.0,24.6,30.18,NW,317,2.0,4.0,77,0.00,,OVC015,0.00,0.00,VWS V14.00,2013-04-24 06:02:00,
2013-04-24 01:05:00,30.9,24.9,30.18,NW,317,2.0,3.0,78,0.00,,OVC015,0.00,0.00,VWS V14.00,2013-04-24 06:05:00,
2013-04-24 01:06:00,30.9,24.9,30.18,NW,317,4.0,4.0,78,0.00,,OVC015,0.00,0.00,VWS V14.00,2013-04-24 06:06:00,
2013-04-24 01:07:00,30.9,24.9,30.18,NW,317,1.0,4.0,78,0.00,,OVC015,0.00,0.00,VWS V14.00,2013-04-24 06:07:00,
2013-04-24 01:10:00,30.8,25.1,30.18,NW,311,4.0,6.0,79,0.00,,OVC015,0.00,0.00,VWS V14.00,2013-04-24 06:10:00,
2013-04-24 01:11:00,30.8,25.1,30.18,NW,320,3.0,7.0,79,0.00,,OVC015,0.00,0.00,VWS V14.00,2013-04-24 06:11:00,
2013-04-24 01:12:00,30.8,25.1,30.18,NW,320,2.0,7.0,79,0.00,,OVC015,0.00,0.00,VWS V14.00,2013-04-24 06:12:00,
2013-04-24 01:15:00,30.8,25.1,30.18,NW,320,2.0,3.0,79,0.00,,OVC015,0.00,0.00,VWS V14.00,2013-04-24 06:15:00,
2013-04-24 01:16:00,30.8,25.4,30.18,NW,320,1.0,3.0,80,0.00,,OVC015,0.00,0.00,VWS V14.00,2013-04-24 06:16:00,
2013-04-24 01:17:00,30.8,25.4,30.18,NW,319,1.0,3.0,80,0.00,,OVC015,0.00,0.00,VWS V14.00,2013-04-24 06:17:00,
2013-04-24 01:18:00,30.7,25.3,30.18,NW,319,1.0,3.0,80,0.00,,OVC015,0.00,0.00,VWS V14.00,2013-04-24 06:18:00,
2013-04-24 01:20:00,30.7,25.3,30.18,NW,320,2.0,2.0,80,0.00,,OVC015,0.00,0.00,VWS V14.00,2013-04-24 06:20:00,
2013-04-24 01:21:00,30.7,25.3,30.18,NW,319,1.0,3.0,80,0.00,,OVC015,0.00,0.00,VWS V14.00,2013-04-24 06:21:00,
2013-04-24 01:23:00,30.7,25.3,30.18,NW,320,2.0,3.0,80,0.00,,OVC015,0.00,0.00,VWS V14.00,2013-04-24 06:23:00,
2013-04-24 01:25:00,30.6,25.5,30.18,NW,320,5.0,5.0,81,0.00,,OVC015,0.00,0.00,VWS V14.00,2013-04-24 06:25:00,
2013-04-24 01:27:00,30.6,25.5,30.18,NW,317,5.0,6.0,81,0.00,,OVC015,0.00,0.00,VWS V14.00,2013-04-24 06:27:00,
2013-04-24 01:28:00,30.6,25.5,30.18,NW,322,5.0,7.0,81,0.00,,OVC015,0.00,0.00,VWS V14.00,2013-04-24 06:28:00,
2013-04-24 01:30:00,30.5,25.7,30.18,NW,319,2.0,3.0,82,0.00,,OVC015,0.00,0.00,VWS V14.00,2013-04-24 06:30:00,
2013-04-24 01:31:00,30.5,25.7,30.18,NW,320,2.0,3.0,82,0.00,,OVC015,0.00,0.00,VWS V14.00,2013-04-24 06:31:00,
2013-04-24 01:32:00,30.5,25.7,30.18,NW,318,1.0,4.0,82,0.00,,OVC015,0.00,0.00,VWS V14.00,2013-04-24 06:32:00,
2013-04-24 01:33:00,30.5,25.7,30.18,NW,319,3.0,4.0,82,0.00,,OVC015,0.00,0.00,VWS V14.00,2013-04-24 06:33:00,
2013-04-24 01:34:00,30.5,25.7,30.18,NW,319,4.0,4.0,82,0.00,,OVC015,0.00,0.00,VWS V14.00,2013-04-24 06:34:00,
2013-04-24 01:35:00,30.5,25.7,30.18,NW,315,4.0,6.0,82,0.00,,OVC015,0.00,0.00,VWS V14.00,2013-04-24 06:35:00,
2013-04-24 01:36:00,30.4,25.9,30.18,NW,315,2.0,6.0,83,0.00,,OVC015,0.00,0.00,VWS V14.00,2013-04-24 06:36:00,
2013-04-24 01:38:00,30.4,25.9,30.18,NW,315,4.0,6.0,83,0.00,,OVC015,0.00,0.00,VWS V14.00,2013-04-24 06:38:00,
2013-04-24 01:39:00,30.4,25.9,30.18,NW,306,5.0,6.0,83,0.00,,OVC015,0.00,0.00,VWS V14.00,2013-04-24 06:39:00,
2013-04-24 01:40:00,30.4,25.9,30.18,NW,316,1.0,7.0,83,0.00,,OVC015,0.00,0.00,VWS V14.00,2013-04-24 06:40:00,
2013-04-24 01:42:00,30.3,25.8,30.19,NW,316,1.0,7.0,83,0.00,,OVC015,0.00,0.00,VWS V14.00,2013-04-24 06:42:00,
2013-04-24 01:43:00,30.4,25.9,30.19,NW,313,5.0,7.0,83,0.00,,OVC015,0.00,0.00,VWS V14.00,2013-04-24 06:43:00,
2013-04-24 01:44:00,30.3,26.1,30.19,WNW,296,4.0,5.0,84,0.00,,OVC015,0.00,0.00,VWS V14.00,2013-04-24 06:44:00,
2013-04-24 01:45:00,30.3,26.1,30.18,NW,325,5.0,5.0,84,0.00,,OVC015,0.00,0.00,VWS V14.00,2013-04-24 06:45:00,
2013-04-24 01:47:00,30.3,26.1,30.18,NW,320,5.0,7.0,84,0.00,,OVC015,0.00,0.00,VWS V14.00,2013-04-24 06:47:00,
2013-04-24 01:48:00,30.3,26.1,30.18,NW,309,3.0,7.0,84,0.00,,OVC015,0.00,0.00,VWS V14.00,2013-04-24 06:48:00,
2013-04-24 01:49:00,30.3,26.1,30.18,NW,315,4.0,5.0,84,0.00,,OVC015,0.00,0.00,VWS V14.00,2013-04-24 06:49:00,
2013-04-24 01:50:00,30.3,26.1,30.18,NW,309,4.0,7.0,84,0.00,,OVC015,0.00,0.00,VWS V14.00,2013-04-24 06:50:00,
2013-04-24 01:51:00,30.2,26.0,30.18,NW,326,3.0,5.0,84,0.00,,OVC015,0.00,0.00,VWS V14.00,2013-04-24 06:51:00,
2013-04-24 01:52:00,30.2,26.0,30.18,NW,316,2.0,5.0,84,0.00,,OVC015,0.00,0.00,VWS V14.00,2013-04-24 06:52:00,
2013-04-24 01:53:00,30.2,26.0,30.18,NW,315,4.0,5.0,84,0.00,,OVC015,0.00,0.00,VWS V14.00,2013-04-24 06:53:00,
2013-04-24 01:54:00,30.2,26.0,30.18,NW,314,4.0,5.0,84,0.00,,OVC015,0.00,0.00,VWS V14.00,2013-04-24 06:54:00,
2013-04-24 01:55:00,30.2,26.0,30.18,NW,311,2.0,6.0,84,0.00,,OVC015,0.00,0.00,VWS V14.00,2013-04-24 06:55:00,
2013-04-24 01:56:00,30.2,26.0,30.18,NW,317,3.0,5.0,84,0.00,,OVC015,0.00,0.00,VWS V14.00,2013-04-24 06:56:00,
2013-04-24 01:57:00,30.1,26.1,30.18,NW,316,3.0,5.0,85,0.00,,OVC015,0.00,0.00,VWS V14.00,2013-04-24 06:57:00,
2013-04-24 01:58:00,30.1,26.1,30.18,NW,321,3.0,5.0,85,0.00,,OVC015,0.00,0.00,VWS V14.00,2013-04-24 06:58:00,
2013-04-24 01:59:00,30.1,26.1,30.18,NW,306,3.0,8.0,85,0.00,,OVC015,0.00,0.00,VWS V14.00,2013-04-24 06:59:00,
2013-04-24 02:00:00,30.1,26.1,30.18,NW,312,4.0,6.0,85,0.00,,OVC015,0.00,0.00,VWS V14.00,2013-04-24 07:00:00,
2013-04-24 02:01:00,30.1,26.1,30.18,NW,318,1.0,8.0,85,0.00,,OVC015,0.00,0.00,VWS V14.00,2013-04-24 07:01:00,
2013-04-24 02:03:00,30.1,26.1,30.18,NW,325,3.0,8.0,85,0.00,,OVC015,0.00,0.00,VWS V14.00,2013-04-24 07:03:00,
2013-04-24 02:04:00,30.0,26.0,30.18,WNW,302,8.0,8.0,85,0.00,,OVC015,0.00,0.00,VWS V14.00,2013-04-24 07:04:00,
2013-04-24 02:05:00,30.0,26.0,30.18,NNW,329,4.0,8.0,85,0.00,,OVC015,0.00,0.00,VWS V14.00,2013-04-24 07:05:00,
2013-04-24 02:06:00,30.0,26.0,30.18,WNW,300,2.0,8.0,85,0.00,,OVC015,0.00,0.00,VWS V14.00,2013-04-24 07:06:00,
2013-04-24 02:08:00,30.0,26.0,30.18,NW,312,4.0,8.0,85,0.00,,OVC015,0.00,0.00,VWS V14.00,2013-04-24 07:08:00,
2013-04-24 02:09:00,29.9,26.0,30.18,WNW,303,2.0,8.0,85,0.00,,OVC015,0.00,0.00,VWS V14.00,2013-04-24 07:09:00,
2013-04-24 02:10:00,29.9,26.0,30.18,NW,308,3.0,4.0,85,0.00,,OVC015,0.00,0.00,VWS V14.00,2013-04-24 07:10:00,
2013-04-24 02:11:00,29.9,26.0,30.18,NNW,334,4.0,7.0,85,0.00,,OVC015,0.00,0.00,VWS V14.00,2013-04-24 07:11:00,
2013-04-24 02:13:00,29.9,26.0,30.18,NW,319,6.0,7.0,85,0.00,,OVC015,0.00,0.00,VWS V14.00,2013-04-24 07:13:00,
2013-04-24 02:14:00,29.8,25.9,30.18,NW,306,4.0,6.0,85,0.00,,OVC015,0.00,0.00,VWS V14.00,2013-04-24 07:14:00,
2013-04-24 02:15:00,29.8,25.9,30.18,NW,317,2.0,6.0,85,0.00,,OVC015,0.00,0.00,VWS V14.00,2013-04-24 07:15:00,
2013-04-24 02:16:00,29.8,25.9,30.18,NW,306,5.0,6.0,85,0.00,,OVC015,0.00,0.00,VWS V14.00,2013-04-24 07:16:00,
2013-04-24 02:18:00,29.8,26.1,30.17,NW,313,3.0,6.0,86,0.00,,OVC015,0.00,0.00,VWS V14.00,2013-04-24 07:18:00,
2013-04-24 02:19:00,29.7,26.0,30.17,NW,313,5.0,5.0,86,0.00,,OVC015,0.00,0.00,VWS V14.00,2013-04-24 07:19:00,
2013-04-24 02:20:00,29.7,26.0,30.17,NW,319,3.0,5.0,86,0.00,,OVC015,0.00,0.00,VWS V14.00,2013-04-24 07:20:00,
2013-04-24 02:21:00,29.7,26.0,30.17,NW,319,3.0,5.0,86,0.00,,OVC015,0.00,0.00,VWS V14.00,2013-04-24 07:21:00,
2013-04-24 02:23:00,29.7,26.0,30.17,NW,315,3.0,6.0,86,0.00,,OVC015,0.00,0.00,VWS V14.00,2013-04-24 07:23:00,
2013-04-24 02:24:00,29.7,26.0,30.17,NW,311,3.0,5.0,86,0.00,,OVC015,0.00,0.00,VWS V14.00,2013-04-24 07:24:00,
2013-04-24 02:25:00,29.6,25.9,30.17,NW,314,4.0,5.0,86,0.00,,OVC015,0.00,0.00,VWS V14.00,2013-04-24 07:25:00,
2013-04-24 02:27:00,29.6,25.9,30.17,WNW,298,2.0,7.0,86,0.00,,OVC015,0.00,0.00,VWS V14.00,2013-04-24 07:27:00,
2013-04-24 02:29:00,29.5,25.8,30.17,NW,313,2.0,3.0,86,0.00,,OVC015,0.00,0.00,VWS V14.00,2013-04-24 07:29:00,
2013-04-24 02:30:00,29.5,25.8,30.17,NW,312,3.0,4.0,86,0.00,,OVC015,0.00,0.00,VWS V14.00,2013-04-24 07:30:00,
2013-04-24 02:31:00,29.6,25.9,30.17,NW,312,2.0,4.0,86,0.00,,OVC015,0.00,0.00,VWS V14.00,2013-04-24 07:31:00,
2013-04-24 02:32:00,29.5,25.8,30.17,NW,313,3.0,4.0,86,0.00,,OVC015,0.00,0.00,VWS V14.00,2013-04-24 07:32:00,
2013-04-24 02:34:00,29.5,26.1,30.17,NW,314,2.0,4.0,87,0.00,,OVC015,0.00,0.00,VWS V14.00,2013-04-24 07:34:00,
2013-04-24 02:35:00,29.5,26.1,30.17,NW,305,1.0,4.0,87,0.00,,OVC015,0.00,0.00,VWS V14.00,2013-04-24 07:35:00,
2013-04-24 02:36:00,29.5,26.1,30.17,NW,319,3.0,9.0,87,0.00,,OVC015,0.00,0.00,VWS V14.00,2013-04-24 07:36:00,
2013-04-24 02:37:00,29.5,26.1,30.17,WNW,303,2.0,9.0,87,0.00,,OVC015,0.00,0.00,VWS V14.00,2013-04-24 07:37:00,
2013-04-24 02:40:00,29.5,25.8,30.17,WNW,300,6.0,6.0,86,0.00,,OVC015,0.00,0.00,VWS V14.00,2013-04-24 07:40:00,
2013-04-24 02:41:00,29.4,25.7,30.17,NW,319,2.0,6.0,86,0.00,,OVC015,0.00,0.00,VWS V14.00,2013-04-24 07:41:00,
2013-04-24 02:42:00,29.4,25.7,30.17,NW,315,3.0,6.0,86,0.00,,OVC015,0.00,0.00,VWS V14.00,2013-04-24 07:42:00,
2013-04-24 02:45:00,29.4,25.7,30.17,NW,323,4.0,5.0,86,0.00,,OVC015,0.00,0.00,VWS V14.00,2013-04-24 07:45:00,
2013-04-24 02:46:00,29.4,25.7,30.17,NW,323,3.0,5.0,86,0.00,,OVC015,0.00,0.00,VWS V14.00,2013-04-24 07:46:00,
2013-04-24 02:47:00,29.4,26.0,30.17,NW,309,2.0,6.0,87,0.00,,OVC015,0.00,0.00,VWS V14.00,2013-04-24 07:47:00,
2013-04-24 02:50:00,29.3,25.9,30.17,NW,306,3.0,7.0,87,0.00,,OVC015,0.00,0.00,VWS V14.00,2013-04-24 07:50:00,
2013-04-24 02:51:00,29.3,25.9,30.17,NW,306,4.0,7.0,87,0.00,,OVC015,0.00,0.00,VWS V14.00,2013-04-24 07:51:00,
2013-04-24 02:52:00,29.3,25.9,30.17,NW,323,6.0,7.0,87,0.00,,OVC015,0.00,0.00,VWS V14.00,2013-04-24 07:52:00,
2013-04-24 02:55:00,29.2,25.8,30.17,WNW,300,4.0,6.0,87,0.00,,OVC015,0.00,0.00,VWS V14.00,2013-04-24 07:55:00,
2013-04-24 02:56:00,29.2,25.8,30.17,NW,316,4.0,6.0,87,0.00,,OVC015,0.00,0.00,VWS V14.00,2013-04-24 07:56:00,
2013-04-24 02:57:00,29.2,25.8,30.17,WNW,294,2.0,6.0,87,0.00,,OVC015,0.00,0.00,VWS V14.00,2013-04-24 07:57:00,
2013-04-24 02:58:00,29.2,25.8,30.17,NW,317,3.0,6.0,87,0.00,,OVC015,0.00,0.00,VWS V14.00,2013-04-24 07:58:00,
2013-04-24 03:00:00,29.1,25.7,30.17,NW,310,5.0,5.0,87,0.00,,OVC015,0.00,0.00,VWS V14.00,2013-04-24 08:00:00,
2013-04-24 03:01:00,29.1,25.7,30.17,NW,309,3.0,5.0,87,0.00,,OVC015,0.00,0.00,VWS V14.00,2013-04-24 08:01:00,
2013-04-24 03:02:00,29.0,25.6,30.17,NW,315,5.0,6.0,87,0.00,,OVC015,0.00,0.00,VWS V14.00,2013-04-24 08:02:00,
2013-04-24 03:03:00,29.1,25.7,30.17,NW,312,3.0,6.0,87,0.00,,OVC015,0.00,0.00,VWS V14.00,2013-04-24 08:03:00,
2013-04-24 03:05:00,29.0,25.6,30.17,NNW,328,4.0,4.0,87,0.00,,OVC015,0.00,0.00,VWS V14.00,2013-04-24 08:05:00,
2013-04-24 03:06:00,29.0,25.6,30.16,NNW,327,3.0,4.0,87,0.00,,OVC015,0.00,0.00,VWS V14.00,2013-04-24 08:06:00,
2013-04-24 03:07:00,29.0,25.6,30.16,NNW,327,4.0,4.0,87,0.00,,OVC015,0.00,0.00,VWS V14.00,2013-04-24 08:07:00,
2013-04-24 03:08:00,29.0,25.6,30.16,NNW,327,0.0,4.0,87,0.00,,OVC015,0.00,0.00,VWS V14.00,2013-04-24 08:08:00,
2013-04-24 03:09:00,28.9,25.5,30.16,NNW,328,3.0,4.0,87,0.00,,OVC015,0.00,0.00,VWS V14.00,2013-04-24 08:09:00,
2013-04-24 03:10:00,29.0,25.6,30.16,NNW,327,2.0,4.0,87,0.00,,OVC015,0.00,0.00,VWS V14.00,2013-04-24 08:10:00,
2013-04-24 03:11:00,28.9,25.5,30.16,NNW,328,2.0,2.0,87,0.00,,OVC015,0.00,0.00,VWS V14.00,2013-04-24 08:11:00,
2013-04-24 03:12:00,28.9,25.5,30.16,NW,325,0.0,4.0,87,0.00,,OVC015,0.00,0.00,VWS V14.00,2013-04-24 08:12:00,
2013-04-24 03:13:00,28.9,25.5,30.16,NW,311,3.0,4.0,87,0.00,,OVC015,0.00,0.00,VWS V14.00,2013-04-24 08:13:00,
2013-04-24 03:14:00,28.9,25.5,30.16,NNW,329,5.0,5.0,87,0.00,,OVC015,0.00,0.00,VWS V14.00,2013-04-24 08:14:00,
2013-04-24 03:15:00,28.9,25.5,30.16,NW,311,2.0,4.0,87,0.00,,OVC015,0.00,0.00,VWS V14.00,2013-04-24 08:15:00,
2013-04-24 03:16:00,28.8,25.4,30.16,NW,320,2.0,5.0,87,0.00,,OVC015,0.00,0.00,VWS V14.00,2013-04-24 08:16:00,
2013-04-24 03:17:00,28.9,25.5,30.16,NW,309,2.0,5.0,87,0.00,,OVC015,0.00,0.00,VWS V14.00,2013-04-24 08:17:00,
2013-04-24 03:18:00,28.9,25.5,30.16,NW,315,3.0,5.0,87,0.00,,OVC015,0.00,0.00,VWS V14.00,2013-04-24 08:18:00,
2013-04-24 03:19:00,28.8,25.4,30.16,NW,313,2.0,2.0,87,0.00,,OVC015,0.00,0.00,VWS V14.00,2013-04-24 08:19:00,
2013-04-24 03:20:00,28.9,25.5,30.16,NW,315,1.0,5.0,87,0.00,,OVC015,0.00,0.00,VWS V14.00,2013-04-24 08:20:00,
2013-04-24 03:21:00,28.8,25.4,30.16,NW,314,1.0,3.0,87,0.00,,OVC015,0.00,0.00,VWS V14.00,2013-04-24 08:21:00,
2013-04-24 03:22:00,28.8,25.7,30.16,NW,313,1.0,4.0,88,0.00,,OVC015,0.00,0.00,VWS V14.00,2013-04-24 08:22:00,
2013-04-24 03:23:00,28.8,25.4,30.16,NW,315,2.0,4.0,87,0.00,,OVC015,0.00,0.00,VWS V14.00,2013-04-24 08:23:00,
2013-04-24 03:24:00,28.8,25.4,30.16,WNW,299,4.0,5.0,87,0.00,,OVC015,0.00,0.00,VWS V14.00,2013-04-24 08:24:00,
2013-04-24 03:25:00,28.8,25.4,30.16,NW,305,4.0,4.0,87,0.00,,OVC015,0.00,0.00,VWS V14.00,2013-04-24 08:25:00,
2013-04-24 03:26:00,28.7,25.3,30.16,NW,307,0.0,5.0,87,0.00,,OVC015,0.00,0.00,VWS V14.00,2013-04-24 08:26:00,
2013-04-24 03:27:00,28.8,25.7,30.15,NW,309,4.0,7.0,88,0.00,,OVC015,0.00,0.00,VWS V14.00,2013-04-24 08:27:00,
2013-04-24 03:28:00,28.7,25.6,30.15,WNW,297,4.0,7.0,88,0.00,,OVC015,0.00,0.00,VWS V14.00,2013-04-24 08:28:00,
2013-04-24 03:29:00,28.7,25.6,30.15,NW,316,6.0,6.0,88,0.00,,OVC015,0.00,0.00,VWS V14.00,2013-04-24 08:29:00,
2013-04-24 03:30:00,28.7,25.6,30.15,WNW,300,3.0,7.0,88,0.00,,OVC015,0.00,0.00,VWS V14.00,2013-04-24 08:30:00,
2013-04-24 03:31:00,28.7,25.6,30.15,WNW,300,2.0,6.0,88,0.00,,OVC015,0.00,0.00,VWS V14.00,2013-04-24 08:31:00,
2013-04-24 03:32:00,28.7,25.6,30.15,NW,315,3.0,6.0,88,0.00,,OVC015,0.00,0.00,VWS V14.00,2013-04-24 08:32:00,
2013-04-24 03:33:00,28.7,25.6,30.15,NW,312,4.0,8.0,88,0.00,,OVC015,0.00,0.00,VWS V14.00,2013-04-24 08:33:00,
2013-04-24 03:34:00,28.6,25.5,30.15,NW,316,4.0,5.0,88,0.00,,OVC015,0.00,0.00,VWS V14.00,2013-04-24 08:34:00,
2013-04-24 03:35:00,28.6,25.5,30.15,NW,317,0.0,5.0,88,0.00,,OVC015,0.00,0.00,VWS V14.00,2013-04-24 08:35:00,
2013-04-24 03:36:00,28.6,25.5,30.15,NW,317,2.0,5.0,88,0.00,,OVC015,0.00,0.00,VWS V14.00,2013-04-24 08:36:00,
2013-04-24 03:37:00,28.6,25.5,30.15,NW,317,3.0,5.0,88,0.00,,OVC015,0.00,0.00,VWS V14.00,2013-04-24 08:37:00,
2013-04-24 03:39:00,28.5,25.4,30.15,NW,317,3.0,3.0,88,0.00,,OVC015,0.00,0.00,VWS V14.00,2013-04-24 08:39:00,
2013-04-24 03:40:00,28.6,25.5,30.16,NW,317,2.0,3.0,88,0.00,,OVC015,0.00,0.00,VWS V14.00,2013-04-24 08:40:00,
2013-04-24 03:41:00,28.5,25.4,30.15,NW,309,3.0,7.0,88,0.00,,OVC015,0.00,0.00,VWS V14.00,2013-04-24 08:41:00,
2013-04-24 03:43:00,28.5,25.4,30.15,NW,308,2.0,7.0,88,0.00,,OVC015,0.00,0.00,VWS V14.00,2013-04-24 08:43:00,
2013-04-24 03:44:00,28.4,25.3,30.15,NW,317,1.0,3.0,88,0.00,,OVC015,0.00,0.00,VWS V14.00,2013-04-24 08:44:00,
2013-04-24 03:45:00,28.5,25.4,30.15,NW,317,3.0,7.0,88,0.00,,OVC015,0.00,0.00,VWS V14.00,2013-04-24 08:45:00,
2013-04-24 03:46:00,28.5,25.4,30.15,NW,311,4.0,8.0,88,0.00,,OVC015,0.00,0.00,VWS V14.00,2013-04-24 08:46:00,
2013-04-24 03:48:00,28.4,25.3,30.15,NW,314,4.0,8.0,88,0.00,,OVC015,0.00,0.00,VWS V14.00,2013-04-24 08:48:00,
2013-04-24 03:49:00,28.4,25.3,30.15,WNW,295,4.0,4.0,88,0.00,,OVC015,0.00,0.00,VWS V14.00,2013-04-24 08:49:00,
2013-04-24 03:50:00,28.4,25.3,30.15,WNW,296,4.0,4.0,88,0.00,,OVC015,0.00,0.00,VWS V14.00,2013-04-24 08:50:00,
2013-04-24 03:51:00,28.4,25.3,30.15,NW,306,4.0,4.0,88,0.00,,OVC015,0.00,0.00,VWS V14.00,2013-04-24 08:51:00,
2013-04-24 03:52:00,28.4,25.3,30.15,NW,318,4.0,7.0,88,0.00,,OVC015,0.00,0.00,VWS V14.00,2013-04-24 08:52:00,
2013-04-24 03:53:00,28.4,25.3,30.16,NW,317,1.0,7.0,88,0.00,,OVC015,0.00,0.00,VWS V14.00,2013-04-24 08:53:00,
2013-04-24 03:54:00,28.3,25.2,30.16,NW,310,4.0,5.0,88,0.00,,OVC015,0.00,0.00,VWS V14.00,2013-04-24 08:54:00,
2013-04-24 03:55:00,28.3,25.2,30.16,NW,309,2.0,5.0,88,0.00,,OVC015,0.00,0.00,VWS V14.00,2013-04-24 08:55:00,
2013-04-24 03:56:00,28.3,25.2,30.16,NW,309,2.0,5.0,88,0.00,,OVC015,0.00,0.00,VWS V14.00,2013-04-24 08:56:00,
2013-04-24 03:57:00,28.3,25.2,30.16,NW,309,3.0,5.0,88,0.00,,OVC015,0.00,0.00,VWS V14.00,2013-04-24 08:57:00,
2013-04-24 03:59:00,28.3,25.2,30.16,NW,318,4.0,5.0,88,0.00,,OVC015,0.00,0.00,VWS V14.00,2013-04-24 08:59:00,
2013-04-24 04:00:00,28.3,25.2,30.16,WNW,303,4.0,7.0,88,0.00,,OVC015,0.00,0.00,VWS V14.00,2013-04-24 09:00:00,
2013-04-24 04:01:00,28.2,25.1,30.16,WNW,302,4.0,7.0,88,0.00,,OVC015,0.00,0.00,VWS V14.00,2013-04-24 09:01:00,
2013-04-24 04:02:00,28.2,25.1,30.16,NW,310,1.0,7.0,88,0.00,,OVC015,0.00,0.00,VWS V14.00,2013-04-24 09:02:00,
2013-04-24 04:04:00,28.2,25.4,30.16,West,281,5.0,7.0,89,0.00,,OVC015,0.00,0.00,VWS V14.00,2013-04-24 09:04:00,
2013-04-24 04:05:00,28.2,25.4,30.16,West,281,1.0,3.0,89,0.00,,OVC015,0.00,0.00,VWS V14.00,2013-04-24 09:05:00,
2013-04-24 04:07:00,28.2,25.4,30.16,West,281,0.0,3.0,89,0.00,,OVC015,0.00,0.00,VWS V14.00,2013-04-24 09:07:00,
2013-04-24 04:09:00,28.2,25.1,30.16,West,281,2.0,3.0,88,0.00,,OVC015,0.00,0.00,VWS V14.00,2013-04-24 09:09:00,
2013-04-24 04:10:00,28.2,25.1,30.16,West,281,0.0,2.0,88,0.00,,OVC015,0.00,0.00,VWS V14.00,2013-04-24 09:10:00,
2013-04-24 04:12:00,28.2,25.1,30.16,West,281,2.0,4.0,88,0.00,,OVC015,0.00,0.00,VWS V14.00,2013-04-24 09:12:00,
2013-04-24 04:14:00,28.1,25.0,30.16,West,281,2.0,2.0,88,0.00,,OVC015,0.00,0.00,VWS V14.00,2013-04-24 09:14:00,
2013-04-24 04:15:00,28.1,25.0,30.16,West,281,2.0,3.0,88,0.00,,OVC015,0.00,0.00,VWS V14.00,2013-04-24 09:15:00,
2013-04-24 04:17:00,28.1,25.0,30.16,NW,314,3.0,7.0,88,0.00,,OVC015,0.00,0.00,VWS V14.00,2013-04-24 09:17:00,
2013-04-24 04:20:00,28.0,24.9,30.16,NW,313,3.0,3.0,88,0.00,,OVC015,0.00,0.00,VWS V14.00,2013-04-24 09:20:00,
2013-04-24 04:22:00,28.0,24.9,30.16,NW,314,2.0,3.0,88,0.00,,OVC015,0.00,0.00,VWS V14.00,2013-04-24 09:22:00,
2013-04-24 04:25:00,27.9,24.8,30.16,NW,314,0.0,1.0,88,0.00,,OVC015,0.00,0.00,VWS V14.00,2013-04-24 09:25:00,
2013-04-24 04:26:00,27.9,24.8,30.16,NW,314,3.0,3.0,88,0.00,,OVC015,0.00,0.00,VWS V14.00,2013-04-24 09:26:00,
2013-04-24 04:27:00,27.9,24.8,30.16,NW,314,3.0,3.0,88,0.00,,OVC015,0.00,0.00,VWS V14.00,2013-04-24 09:27:00,
2013-04-24 04:28:00,27.9,24.8,30.16,NW,314,2.0,4.0,88,0.00,,OVC015,0.00,0.00,VWS V14.00,2013-04-24 09:28:00,
2013-04-24 04:30:00,27.8,24.7,30.16,NW,314,2.0,3.0,88,0.00,,OVC015,0.00,0.00,VWS V14.00,2013-04-24 09:30:00,
2013-04-24 04:31:00,27.8,24.7,30.16,NW,314,1.0,3.0,88,0.00,,OVC015,0.00,0.00,VWS V14.00,2013-04-24 09:31:00,
2013-04-24 04:32:00,27.8,25.0,30.16,NW,314,0.0,3.0,89,0.00,,OVC015,0.00,0.00,VWS V14.00,2013-04-24 09:32:00,
2013-04-24 04:33:00,27.7,24.9,30.16,NW,313,1.0,3.0,89,0.00,,OVC015,0.00,0.00,VWS V14.00,2013-04-24 09:33:00,
2013-04-24 04:35:00,27.7,24.9,30.16,NW,313,3.0,3.0,89,0.00,,OVC015,0.00,0.00,VWS V14.00,2013-04-24 09:35:00,
2013-04-24 04:36:00,27.6,24.8,30.16,NW,322,1.0,4.0,89,0.00,,OVC015,0.00,0.00,VWS V14.00,2013-04-24 09:36:00,
2013-04-24 04:37:00,27.6,24.8,30.16,NW,314,0.0,4.0,89,0.00,,OVC015,0.00,0.00,VWS V14.00,2013-04-24 09:37:00,
2013-04-24 04:38:00,27.6,24.8,30.16,NW,314,4.0,4.0,89,0.00,,OVC015,0.00,0.00,VWS V14.00,2013-04-24 09:38:00,
2013-04-24 04:40:00,27.5,24.7,30.16,NW,305,5.0,6.0,89,0.00,,OVC015,0.00,0.00,VWS V14.00,2013-04-24 09:40:00,
2013-04-24 04:41:00,27.5,24.4,30.16,NW,305,3.0,6.0,88,0.00,,OVC015,0.00,0.00,VWS V14.00,2013-04-24 09:41:00,
2013-04-24 04:43:00,27.5,24.7,30.16,NW,307,3.0,6.0,89,0.00,,OVC015,0.00,0.00,VWS V14.00,2013-04-24 09:43:00,
2013-04-24 04:45:00,27.5,24.7,30.16,NW,308,0.0,1.0,89,0.00,,OVC015,0.00,0.00,VWS V14.00,2013-04-24 09:45:00,
2013-04-24 04:46:00,27.4,24.6,30.16,NW,308,2.0,3.0,89,0.00,,OVC015,0.00,0.00,VWS V14.00,2013-04-24 09:46:00,
2013-04-24 04:48:00,27.4,24.6,30.16,NW,308,1.0,3.0,89,0.00,,OVC015,0.00,0.00,VWS V14.00,2013-04-24 09:48:00,
2013-04-24 04:49:00,27.4,24.6,30.16,NW,308,2.0,3.0,89,0.00,,OVC015,0.00,0.00,VWS V14.00,2013-04-24 09:49:00,
2013-04-24 04:50:00,27.4,24.6,30.16,NW,308,3.0,3.0,89,0.00,,OVC015,0.00,0.00,VWS V14.00,2013-04-24 09:50:00,
2013-04-24 04:51:00,27.3,24.5,30.16,NW,308,0.0,3.0,89,0.00,,OVC015,0.00,0.00,VWS V14.00,2013-04-24 09:51:00,
2013-04-24 04:54:00,27.3,24.5,30.16,WNW,290,3.0,3.0,89,0.00,,OVC015,0.00,0.00,VWS V14.00,2013-04-24 09:54:00,
2013-04-24 04:55:00,27.2,24.4,30.16,NW,326,1.0,6.0,89,0.00,,OVC015,0.00,0.00,VWS V14.00,2013-04-24 09:55:00,
2013-04-24 04:57:00,27.2,24.4,30.16,NW,326,3.0,6.0,89,0.00,,OVC015,0.00,0.00,VWS V14.00,2013-04-24 09:57:00,
2013-04-24 04:59:00,27.2,24.4,30.16,NNW,327,1.0,1.0,89,0.00,,OVC015,0.00,0.00,VWS V14.00,2013-04-24 09:59:00,
2013-04-24 05:00:00,27.2,24.4,30.16,WNW,302,3.0,4.0,89,0.00,,OVC015,0.00,0.00,VWS V14.00,2013-04-24 10:00:00,
2013-04-24 05:02:00,27.2,24.4,30.16,NW,308,1.0,4.0,89,0.00,,OVC015,0.00,0.00,VWS V14.00,2013-04-24 10:02:00,
2013-04-24 05:04:00,27.2,24.4,30.16,NW,311,4.0,4.0,89,0.00,,OVC015,0.00,0.00,VWS V14.00,2013-04-24 10:04:00,
2013-04-24 05:05:00,27.2,24.4,30.16,NW,311,3.0,4.0,89,0.00,,OVC015,0.00,0.00,VWS V14.00,2013-04-24 10:05:00,
2013-04-24 05:07:00,27.2,24.4,30.16,NW,311,1.0,4.0,89,0.00,,OVC015,0.00,0.00,VWS V14.00,2013-04-24 10:07:00,
2013-04-24 05:08:00,27.2,24.4,30.17,NW,310,3.0,4.0,89,0.00,,OVC015,0.00,0.00,VWS V14.00,2013-04-24 10:08:00,
2013-04-24 05:09:00,27.2,24.4,30.16,NW,310,2.0,3.0,89,0.00,,OVC015,0.00,0.00,VWS V14.00,2013-04-24 10:09:00,
2013-04-24 05:10:00,27.2,24.4,30.17,NW,311,3.0,4.0,89,0.00,,OVC015,0.00,0.00,VWS V14.00,2013-04-24 10:10:00,
2013-04-24 05:11:00,27.2,24.4,30.17,NW,315,2.0,3.0,89,0.00,,OVC015,0.00,0.00,VWS V14.00,2013-04-24 10:11:00,
2013-04-24 05:12:00,27.2,24.4,30.17,NW,316,1.0,3.0,89,0.00,,OVC015,0.00,0.00,VWS V14.00,2013-04-24 10:12:00,
2013-04-24 05:13:00,27.2,24.4,30.16,NW,316,2.0,3.0,89,0.00,,OVC015,0.00,0.00,VWS V14.00,2013-04-24 10:13:00,
2013-04-24 05:14:00,27.2,24.4,30.17,NW,315,2.0,4.0,89,0.00,,OVC015,0.00,0.00,VWS V14.00,2013-04-24 10:14:00,
2013-04-24 05:15:00,27.2,24.4,30.17,NW,316,2.0,4.0,89,0.00,,OVC015,0.00,0.00,VWS V14.00,2013-04-24 10:15:00,
2013-04-24 05:17:00,27.2,24.4,30.17,WNW,295,3.0,4.0,89,0.00,,OVC015,0.00,0.00,VWS V14.00,2013-04-24 10:17:00,
2013-04-24 05:18:00,27.2,24.4,30.17,NNW,329,2.0,6.0,89,0.00,,OVC015,0.00,0.00,VWS V14.00,2013-04-24 10:18:00,
2013-04-24 05:20:00,27.2,24.4,30.16,NNW,327,1.0,2.0,89,0.00,,OVC015,0.00,0.00,VWS V14.00,2013-04-24 10:20:00,
2013-04-24 05:22:00,27.2,24.4,30.16,WNW,287,2.0,4.0,89,0.00,,OVC015,0.00,0.00,VWS V14.00,2013-04-24 10:22:00,
2013-04-24 05:23:00,27.2,24.4,30.16,WNW,287,1.0,4.0,89,0.00,,OVC015,0.00,0.00,VWS V14.00,2013-04-24 10:23:00,
2013-04-24 05:24:00,27.2,24.4,30.16,NW,325,3.0,6.0,89,0.00,,OVC015,0.00,0.00,VWS V14.00,2013-04-24 10:24:00,
2013-04-24 05:25:00,27.2,24.4,30.17,NW,317,1.0,4.0,89,0.00,,OVC015,0.00,0.00,VWS V14.00,2013-04-24 10:25:00,
2013-04-24 05:27:00,27.2,24.4,30.17,NW,317,0.0,4.0,89,0.00,,OVC015,0.00,0.00,VWS V14.00,2013-04-24 10:27:00,
2013-04-24 05:28:00,27.2,24.4,30.17,NW,317,1.0,4.0,89,0.00,,OVC015,0.00,0.00,VWS V14.00,2013-04-24 10:28:00,
2013-04-24 05:29:00,27.2,24.4,30.17,NW,316,3.0,5.0,89,0.00,,OVC015,0.00,0.00,VWS V14.00,2013-04-24 10:29:00,
2013-04-24 05:30:00,27.2,24.4,30.17,NW,315,0.0,5.0,89,0.00,,OVC015,0.00,0.00,VWS V14.00,2013-04-24 10:30:00,
2013-04-24 05:32:00,27.2,24.4,30.17,NW,316,2.0,5.0,89,0.00,,OVC015,0.00,0.00,VWS V14.00,2013-04-24 10:32:00,
2013-04-24 05:33:00,27.2,24.4,30.17,NW,316,0.0,5.0,89,0.00,,OVC015,0.00,0.00,VWS V14.00,2013-04-24 10:33:00,
2013-04-24 05:34:00,27.2,24.4,30.17,NW,316,0.0,0.0,89,0.00,,OVC015,0.00,0.00,VWS V14.00,2013-04-24 10:34:00,
2013-04-24 05:35:00,27.2,24.4,30.17,NW,316,2.0,2.0,89,0.00,,OVC015,0.00,0.00,VWS V14.00,2013-04-24 10:35:00,
2013-04-24 05:37:00,27.2,24.4,30.17,NW,315,0.0,2.0,89,0.00,,OVC015,0.00,0.00,VWS V14.00,2013-04-24 10:37:00,
2013-04-24 05:39:00,27.2,24.4,30.17,NW,316,0.0,1.0,89,0.00,,OVC015,0.00,0.00,VWS V14.00,2013-04-24 10:39:00,
2013-04-24 05:40:00,27.1,24.3,30.17,NW,315,1.0,2.0,89,0.00,,OVC015,0.00,0.00,VWS V14.00,2013-04-24 10:40:00,
2013-04-24 05:43:00,27.1,24.3,30.17,NW,315,0.0,2.0,89,0.00,,OVC015,0.00,0.00,VWS V14.00,2013-04-24 10:43:00,
2013-04-24 05:44:00,27.1,24.3,30.17,NW,316,0.0,0.0,89,0.00,,OVC015,0.00,0.00,VWS V14.00,2013-04-24 10:44:00,
2013-04-24 05:45:00,27.1,24.3,30.17,NW,316,0.0,1.0,89,0.00,,OVC015,0.00,0.00,VWS V14.00,2013-04-24 10:45:00,
2013-04-24 05:48:00,27.0,24.2,30.17,NW,316,1.0,2.0,89,0.00,,OVC015,0.00,0.00,VWS V14.00,2013-04-24 10:48:00,
2013-04-24 05:49:00,27.0,24.2,30.17,NW,316,0.0,0.0,89,0.00,,OVC015,0.00,0.00,VWS V14.00,2013-04-24 10:49:00,
2013-04-24 05:50:00,26.9,24.1,30.17,NW,315,0.0,1.0,89,0.00,,OVC015,0.00,0.00,VWS V14.00,2013-04-24 10:50:00,
2013-04-24 05:53:00,26.9,24.1,30.17,NW,315,0.0,1.0,89,0.00,,OVC015,0.00,0.00,VWS V14.00,2013-04-24 10:53:00,
2013-04-24 05:54:00,26.9,24.1,30.17,NW,316,0.0,0.0,89,0.00,,OVC015,0.00,0.00,VWS V14.00,2013-04-24 10:54:00,
2013-04-24 05:55:00,26.9,24.1,30.17,NW,315,0.0,1.0,89,0.00,,OVC015,0.00,0.00,VWS V14.00,2013-04-24 10:55:00,
2013-04-24 05:56:00,26.8,24.0,30.17,NW,316,0.0,1.0,89,0.00,,OVC015,0.00,0.00,VWS V14.00,2013-04-24 10:56:00,
2013-04-24 05:59:00,26.7,23.9,30.17,NW,315,1.0,1.0,89,0.00,,OVC015,0.00,0.00,VWS V14.00,2013-04-24 10:59:00,
2013-04-24 06:00:00,26.7,23.9,30.17,NW,316,0.0,1.0,89,0.00,,OVC015,0.00,0.00,VWS V14.00,2013-04-24 11:00:00,
2013-04-24 06:01:00,26.7,23.9,30.17,NW,316,0.0,1.0,89,0.00,,OVC015,0.00,0.00,VWS V14.00,2013-04-24 11:01:00,
2013-04-24 06:04:00,26.6,24.1,30.17,NW,316,0.0,1.0,90,0.00,,OVC015,0.00,0.00,VWS V14.00,2013-04-24 11:04:00,
2013-04-24 06:05:00,26.6,24.1,30.16,NW,316,0.0,1.0,90,0.00,,OVC015,0.00,0.00,VWS V14.00,2013-04-24 11:05:00,
2013-04-24 06:06:00,26.6,24.1,30.16,NW,315,0.0,1.0,90,0.00,,OVC015,0.00,0.00,VWS V14.00,2013-04-24 11:06:00,
2013-04-24 06:10:00,26.6,24.1,30.16,NW,315,0.0,0.0,90,0.00,,OVC015,0.00,0.00,VWS V14.00,2013-04-24 11:10:00,
2013-04-24 06:11:00,26.5,24.0,30.16,NW,315,0.0,0.0,90,0.00,,OVC015,0.00,0.00,VWS V14.00,2013-04-24 11:11:00,
2013-04-24 06:12:00,26.5,24.0,30.16,NW,316,0.0,0.0,90,0.00,,OVC015,0.00,0.00,VWS V14.00,2013-04-24 11:12:00,
2013-04-24 06:14:00,26.5,24.0,30.17,NW,316,0.0,0.0,90,0.00,,OVC015,0.00,0.00,VWS V14.00,2013-04-24 11:14:00,
2013-04-24 06:15:00,26.5,24.0,30.17,NW,316,0.0,0.0,90,0.00,,OVC015,0.00,0.00,VWS V14.00,2013-04-24 11:15:00,
2013-04-24 06:17:00,26.5,24.0,30.17,NW,316,0.0,0.0,90,0.00,,OVC015,0.00,0.00,VWS V14.00,2013-04-24 11:17:00,
2013-04-24 06:19:00,26.4,23.9,30.17,NW,315,0.0,0.0,90,0.00,,OVC015,0.00,0.00,VWS V14.00,2013-04-24 11:19:00,
2013-04-24 06:20:00,26.3,23.8,30.17,NW,316,0.0,1.0,90,0.00,,OVC015,0.00,0.00,VWS V14.00,2013-04-24 11:20:00,
2013-04-24 06:22:00,26.3,23.8,30.17,NW,315,0.0,1.0,90,0.00,,OVC015,0.00,0.00,VWS V14.00,2013-04-24 11:22:00,
2013-04-24 06:25:00,26.2,23.7,30.17,NW,316,0.0,0.0,90,0.00,,OVC015,0.00,5.00,VWS V14.00,2013-04-24 11:25:00,
2013-04-24 06:27:00,26.1,23.6,30.17,NW,316,0.0,0.0,90,0.00,,OVC015,0.00,7.00,VWS V14.00,2013-04-24 11:27:00,
2013-04-24 06:28:00,26.1,23.6,30.17,NW,315,0.0,0.0,90,0.00,,OVC015,0.00,7.00,VWS V14.00,2013-04-24 11:28:00,
2013-04-24 06:30:00,26.1,23.6,30.17,NW,315,0.0,0.0,90,0.00,,OVC015,0.00,9.00,VWS V14.00,2013-04-24 11:30:00,
2013-04-24 06:31:00,26.1,23.6,30.17,NW,316,0.0,0.0,90,0.00,,OVC015,0.00,11.00,VWS V14.00,2013-04-24 11:31:00,
2013-04-24 06:33:00,26.1,23.6,30.17,NW,315,0.0,0.0,90,0.00,,OVC015,0.00,12.00,VWS V14.00,2013-04-24 11:33:00,
2013-04-24 06:35:00,26.1,23.6,30.17,NW,316,0.0,1.0,90,0.00,,OVC015,0.00,12.00,VWS V14.00,2013-04-24 11:35:00,
2013-04-24 06:36:00,26.1,23.6,30.17,NW,316,0.0,0.0,90,0.00,,OVC015,0.00,14.00,VWS V14.00,2013-04-24 11:36:00,
2013-04-24 06:38:00,26.1,23.6,30.17,NW,316,0.0,0.0,90,0.00,,OVC015,0.00,16.00,VWS V14.00,2013-04-24 11:38:00,
2013-04-24 06:40:00,26.1,23.6,30.17,NW,316,0.0,1.0,90,0.00,,OVC015,0.00,18.00,VWS V14.00,2013-04-24 11:40:00,
2013-04-24 06:41:00,26.1,23.6,30.17,NW,316,0.0,0.0,90,0.00,,OVC015,0.00,19.00,VWS V14.00,2013-04-24 11:41:00,
2013-04-24 06:43:00,26.2,23.7,30.17,NW,316,0.0,0.0,90,0.00,,OVC015,0.00,21.00,VWS V14.00,2013-04-24 11:43:00,
2013-04-24 06:45:00,26.2,23.7,30.17,NW,315,0.0,0.0,90,0.00,,OVC015,0.00,23.00,VWS V14.00,2013-04-24 11:45:00,
2013-04-24 06:46:00,26.3,23.8,30.17,NW,316,0.0,0.0,90,0.00,,OVC015,0.00,25.00,VWS V14.00,2013-04-24 11:46:00,
2013-04-24 06:47:00,26.3,23.8,30.17,NW,316,0.0,0.0,90,0.00,,OVC015,0.00,25.00,VWS V14.00,2013-04-24 11:47:00,
2013-04-24 06:48:00,26.3,23.8,30.17,NW,316,0.0,0.0,90,0.00,,OVC015,0.00,26.00,VWS V14.00,2013-04-24 11:48:00,
2013-04-24 06:49:00,26.3,23.8,30.17,NW,315,0.0,0.0,90,0.00,,OVC015,0.00,30.00,VWS V14.00,2013-04-24 11:49:00,
2013-04-24 06:50:00,26.3,23.8,30.17,NW,315,0.0,0.0,90,0.00,,OVC015,0.00,26.00,VWS V14.00,2013-04-24 11:50:00,
2013-04-24 06:51:00,26.4,23.9,30.17,NW,316,0.0,1.0,90,0.00,,OVC015,0.00,35.00,VWS V14.00,2013-04-24 11:51:00,
2013-04-24 06:52:00,26.5,24.0,30.17,NW,315,0.0,1.0,90,0.00,,OVC015,0.00,35.00,VWS V14.00,2013-04-24 11:52:00,
2013-04-24 06:53:00,26.5,24.0,30.18,NW,316,0.0,1.0,90,0.00,,OVC015,0.00,44.00,VWS V14.00,2013-04-24 11:53:00,
2013-04-24 06:54:00,26.6,24.1,30.17,NW,316,2.0,2.0,90,0.00,,OVC015,0.00,47.00,VWS V14.00,2013-04-24 11:54:00,
2013-04-24 06:55:00,26.6,24.1,30.18,NW,316,0.0,2.0,90,0.00,,OVC015,0.00,44.00,VWS V14.00,2013-04-24 11:55:00,
2013-04-24 06:56:00,26.7,24.2,30.18,NW,315,1.0,2.0,90,0.00,,OVC015,0.00,53.00,VWS V14.00,2013-04-24 11:56:00,
2013-04-24 06:57:00,26.8,24.3,30.18,NW,316,0.0,3.0,90,0.00,,OVC015,0.00,54.00,VWS V14.00,2013-04-24 11:57:00,
2013-04-24 06:58:00,26.9,24.4,30.18,NW,316,0.0,3.0,90,0.00,,OVC015,0.00,58.00,VWS V14.00,2013-04-24 11:58:00,
2013-04-24 06:59:00,27.0,24.5,30.18,NW,315,2.0,3.0,90,0.00,,OVC015,0.00,62.00,VWS V14.00,2013-04-24 11:59:00,
2013-04-24 07:00:00,26.9,24.4,30.18,NW,316,2.0,3.0,90,0.00,,OVC015,0.00,60.00,VWS V14.00,2013-04-24 12:00:00,
2013-04-24 07:01:00,27.2,24.7,30.18,WNW,284,2.0,3.0,90,0.00,,OVC015,0.00,67.00,VWS V14.00,2013-04-24 12:01:00,
2013-04-24 07:02:00,27.2,24.7,30.18,WNW,284,0.0,3.0,90,0.00,,OVC015,0.00,70.00,VWS V14.00,2013-04-24 12:02:00,
2013-04-24 07:04:00,27.4,24.9,30.18,WNW,284,0.0,3.0,90,0.00,,OVC015,0.00,77.00,VWS V14.00,2013-04-24 12:04:00,
2013-04-24 07:05:00,27.5,25.0,30.18,WNW,284,4.0,4.0,90,0.00,,OVC015,0.00,83.00,VWS V14.00,2013-04-24 12:05:00,
2013-04-24 07:06:00,27.6,24.8,30.18,WNW,283,0.0,4.0,89,0.00,,OVC015,0.00,84.00,VWS V14.00,2013-04-24 12:06:00,
2013-04-24 07:07:00,27.7,24.9,30.18,WNW,283,3.0,4.0,89,0.00,,OVC015,0.00,84.00,VWS V14.00,2013-04-24 12:07:00,
2013-04-24 07:09:00,27.8,25.0,30.18,WNW,283,1.0,2.0,89,0.00,,OVC015,0.00,91.00,VWS V14.00,2013-04-24 12:09:00,
2013-04-24 07:10:00,27.9,25.1,30.18,WNW,283,2.0,4.0,89,0.00,,OVC015,0.00,98.00,VWS V14.00,2013-04-24 12:10:00,
2013-04-24 07:11:00,28.0,25.2,30.18,WNW,282,0.0,4.0,89,0.00,,OVC015,0.00,100.00,VWS V14.00,2013-04-24 12:11:00,
2013-04-24 07:12:00,28.0,25.2,30.18,WNW,283,0.0,4.0,89,0.00,,OVC015,0.00,104.00,VWS V14.00,2013-04-24 12:12:00,
2013-04-24 07:14:00,28.2,25.4,30.18,WNW,284,0.0,1.0,89,0.00,,OVC015,0.00,109.00,VWS V14.00,2013-04-24 12:14:00,
2013-04-24 07:15:00,28.2,25.4,30.18,WNW,282,1.0,4.0,89,0.00,,OVC015,0.00,109.00,VWS V14.00,2013-04-24 12:15:00,
2013-04-24 07:16:00,28.3,25.2,30.18,WSW,238,3.0,3.0,88,0.00,,OVC015,0.00,114.00,VWS V14.00,2013-04-24 12:16:00,
2013-04-24 07:17:00,28.4,25.3,30.18,WSW,240,1.0,3.0,88,0.00,,OVC015,0.00,123.00,VWS V14.00,2013-04-24 12:17:00,
2013-04-24 07:19:00,28.5,25.4,30.18,WSW,240,0.0,0.0,88,0.00,,OVC015,0.00,128.00,VWS V14.00,2013-04-24 12:19:00,
2013-04-24 07:20:00,28.5,25.4,30.18,WSW,240,0.0,3.0,88,0.00,,OVC015,0.00,125.00,VWS V14.00,2013-04-24 12:20:00,
2013-04-24 07:21:00,28.7,25.6,30.18,WSW,240,2.0,3.0,88,0.00,,OVC015,0.00,142.00,VWS V14.00,2013-04-24 12:21:00,
2013-04-24 07:23:00,28.8,25.4,30.18,WSW,240,2.0,3.0,87,0.00,,OVC015,0.00,153.00,VWS V14.00,2013-04-24 12:23:00,
2013-04-24 07:24:00,28.9,25.5,30.18,WSW,249,1.0,3.0,87,0.00,,OVC015,0.00,162.00,VWS V14.00,2013-04-24 12:24:00,
2013-04-24 07:25:00,28.8,25.4,30.18,WSW,240,2.0,3.0,87,0.00,,OVC015,0.00,158.00,VWS V14.00,2013-04-24 12:25:00,
2013-04-24 07:26:00,29.0,25.6,30.18,WSW,249,3.0,3.0,87,0.00,,OVC015,0.00,171.00,VWS V14.00,2013-04-24 12:26:00,
2013-04-24 07:27:00,29.0,25.6,30.18,WSW,249,2.0,3.0,87,0.00,,OVC015,0.00,171.00,VWS V14.00,2013-04-24 12:27:00,
2013-04-24 07:28:00,29.1,25.7,30.18,WSW,249,3.0,3.0,87,0.00,,OVC015,0.00,172.00,VWS V14.00,2013-04-24 12:28:00,
2013-04-24 07:29:00,29.1,25.7,30.18,WSW,249,0.0,0.0,87,0.00,,OVC015,0.00,174.00,VWS V14.00,2013-04-24 12:29:00,
2013-04-24 07:30:00,29.1,25.7,30.18,WSW,249,0.0,3.0,87,0.00,,OVC015,0.00,174.00,VWS V14.00,2013-04-24 12:30:00,
2013-04-24 07:31:00,29.3,25.9,30.18,West,265,1.0,3.0,87,0.00,,OVC015,0.00,176.00,VWS V14.00,2013-04-24 12:31:00,
2013-04-24 07:32:00,29.3,25.9,30.18,West,265,2.0,3.0,87,0.00,,OVC015,0.00,178.00,VWS V14.00,2013-04-24 12:32:00,
2013-04-24 07:33:00,29.4,26.0,30.18,West,265,0.0,3.0,87,0.00,,OVC015,0.00,181.00,VWS V14.00,2013-04-24 12:33:00,
2013-04-24 07:34:00,29.4,26.0,30.18,West,269,2.0,4.0,87,0.00,,OVC015,0.00,183.00,VWS V14.00,2013-04-24 12:34:00,
2013-04-24 07:35:00,29.4,26.0,30.18,West,265,1.0,3.0,87,0.00,,OVC015,0.00,181.00,VWS V14.00,2013-04-24 12:35:00,
2013-04-24 07:37:00,29.6,25.9,30.18,West,277,2.0,4.0,86,0.00,,OVC015,0.00,186.00,VWS V14.00,2013-04-24 12:37:00,
2013-04-24 07:38:00,29.7,26.0,30.18,West,279,3.0,4.0,86,0.00,,OVC015,0.00,192.00,VWS V14.00,2013-04-24 12:38:00,
2013-04-24 07:39:00,29.7,26.0,30.18,WNW,289,2.0,4.0,86,0.00,,OVC015,0.00,192.00,VWS V14.00,2013-04-24 12:39:00,
2013-04-24 07:40:00,29.7,26.0,30.18,West,279,3.0,4.0,86,0.00,,OVC015,0.00,192.00,VWS V14.00,2013-04-24 12:40:00,
2013-04-24 07:42:00,29.9,26.2,30.18,WNW,288,1.0,4.0,86,0.00,,OVC015,0.00,197.00,VWS V14.00,2013-04-24 12:42:00,
2013-04-24 07:44:00,30.1,26.4,30.19,WNW,289,4.0,4.0,86,0.00,,OVC015,0.00,206.00,VWS V14.00,2013-04-24 12:44:00,
2013-04-24 07:45:00,30.1,26.4,30.19,WNW,289,4.0,4.0,86,0.00,,OVC015,0.00,206.00,VWS V14.00,2013-04-24 12:45:00,
2013-04-24 07:47:00,30.3,26.3,30.19,WSW,247,1.0,4.0,85,0.00,,OVC015,0.00,214.00,VWS V14.00,2013-04-24 12:47:00,
2013-04-24 07:49:00,30.5,26.2,30.19,SW,223,3.0,3.0,84,0.00,,OVC015,0.00,223.00,VWS V14.00,2013-04-24 12:49:00,
2013-04-24 07:50:00,30.5,26.2,30.19,SW,223,2.0,4.0,84,0.00,,OVC015,0.00,223.00,VWS V14.00,2013-04-24 12:50:00,
2013-04-24 07:52:00,30.6,26.4,30.19,West,275,3.0,4.0,84,0.00,,OVC015,0.00,230.00,VWS V14.00,2013-04-24 12:52:00,
2013-04-24 07:54:00,30.8,26.8,30.19,West,270,3.0,3.0,85,0.00,,OVC015,0.00,239.00,VWS V14.00,2013-04-24 12:54:00,
2013-04-24 07:55:00,30.8,26.8,30.19,West,270,2.0,3.0,85,0.00,,OVC015,0.00,243.00,VWS V14.00,2013-04-24 12:55:00,
2013-04-24 07:57:00,30.9,26.6,30.19,West,270,1.0,3.0,84,0.00,,OVC015,0.00,250.00,VWS V14.00,2013-04-24 12:57:00,
2013-04-24 07:59:00,31.0,26.7,30.19,West,278,2.0,5.0,84,0.00,,OVC015,0.00,258.00,VWS V14.00,2013-04-24 12:59:00,
2013-04-24 08:00:00,31.1,26.8,30.19,West,279,3.0,5.0,84,0.00,,OVC015,0.00,260.00,VWS V14.00,2013-04-24 13:00:00,
2013-04-24 08:02:00,31.2,26.9,30.19,WSW,237,5.0,5.0,84,0.00,,OVC015,0.00,271.00,VWS V14.00,2013-04-24 13:02:00,
2013-04-24 08:05:00,31.4,27.1,30.19,WNW,283,3.0,4.0,84,0.00,,OVC015,0.00,276.00,VWS V14.00,2013-04-24 13:05:00,
2013-04-24 08:07:00,31.5,26.9,30.19,West,277,3.0,5.0,83,0.00,,OVC015,0.00,292.00,VWS V14.00,2013-04-24 13:07:00,
2013-04-24 08:08:00,31.5,26.9,30.19,West,277,2.0,5.0,83,0.00,,OVC015,0.00,292.00,VWS V14.00,2013-04-24 13:08:00,
2013-04-24 08:10:00,31.7,27.1,30.19,WNW,288,5.0,5.0,83,0.00,,OVC015,0.00,299.00,VWS V14.00,2013-04-24 13:10:00,
2013-04-24 08:12:00,31.9,27.3,30.19,WNW,284,3.0,5.0,83,0.00,,OVC015,0.00,311.00,VWS V14.00,2013-04-24 13:12:00,
2013-04-24 08:13:00,31.9,27.3,30.19,NW,305,2.0,5.0,83,0.00,,OVC015,0.00,311.00,VWS V14.00,2013-04-24 13:13:00,
2013-04-24 08:15:00,32.1,27.5,30.19,WSW,245,3.0,5.0,83,0.00,,OVC015,0.00,320.00,VWS V14.00,2013-04-24 13:15:00,
2013-04-24 08:17:00,32.3,27.4,30.20,WNW,291,4.0,5.0,82,0.00,,OVC015,0.00,327.00,VWS V14.00,2013-04-24 13:17:00,
2013-04-24 08:18:00,32.3,27.4,30.20,WNW,290,2.0,5.0,82,0.00,,OVC015,0.00,330.00,VWS V14.00,2013-04-24 13:18:00,
2013-04-24 08:20:00,32.5,27.6,30.20,WSW,257,1.0,3.0,82,0.00,,OVC015,0.00,339.00,VWS V14.00,2013-04-24 13:20:00,
2013-04-24 08:21:00,32.5,27.6,30.20,WSW,257,0.0,3.0,82,0.00,,OVC015,0.00,339.00,VWS V14.00,2013-04-24 13:21:00,
2013-04-24 08:23:00,32.7,27.8,30.19,West,265,3.0,3.0,82,0.00,,OVC015,0.00,350.00,VWS V14.00,2013-04-24 13:23:00,
2013-04-24 08:25:00,32.9,27.7,30.19,West,266,3.0,5.0,81,0.00,,OVC015,0.00,355.00,VWS V14.00,2013-04-24 13:25:00,
2013-04-24 08:26:00,32.9,27.7,30.19,West,266,3.0,5.0,81,0.00,,OVC015,0.00,355.00,VWS V14.00,2013-04-24 13:26:00,
2013-04-24 08:28:00,33.0,27.5,30.20,WNW,294,4.0,6.0,80,0.00,,OVC015,0.00,364.00,VWS V14.00,2013-04-24 13:28:00,
2013-04-24 08:30:00,33.1,27.9,30.20,WNW,282,3.0,6.0,81,0.00,,OVC015,0.00,364.00,VWS V14.00,2013-04-24 13:30:00,
2013-04-24 08:31:00,33.2,28.0,30.20,WNW,283,3.0,4.0,81,0.00,,OVC015,0.00,373.00,VWS V14.00,2013-04-24 13:31:00,
2013-04-24 08:32:00,33.3,27.8,30.20,WSW,245,3.0,4.0,80,0.00,,OVC015,0.00,376.00,VWS V14.00,2013-04-24 13:32:00,
2013-04-24 08:33:00,33.3,28.1,30.20,WSW,245,0.0,4.0,81,0.00,,OVC015,0.00,378.00,VWS V14.00,2013-04-24 13:33:00,
2013-04-24 08:35:00,33.4,28.2,30.20,West,265,5.0,5.0,81,0.00,,OVC015,0.00,380.00,VWS V14.00,2013-04-24 13:35:00,
2013-04-24 08:36:00,33.5,28.0,30.19,West,270,3.0,5.0,80,0.00,,OVC015,0.00,388.00,VWS V14.00,2013-04-24 13:36:00,
2013-04-24 08:37:00,33.5,28.3,30.19,West,270,2.0,5.0,81,0.00,,OVC015,0.00,392.00,VWS V14.00,2013-04-24 13:37:00,
2013-04-24 08:39:00,33.7,28.2,30.20,West,261,4.0,5.0,80,0.00,,OVC015,0.00,399.00,VWS V14.00,2013-04-24 13:39:00,
2013-04-24 08:40:00,33.7,28.2,30.20,West,261,4.0,5.0,80,0.00,,OVC015,0.00,399.00,VWS V14.00,2013-04-24 13:40:00,
2013-04-24 08:41:00,33.8,28.0,30.20,West,269,4.0,4.0,79,0.00,,OVC015,0.00,406.00,VWS V14.00,2013-04-24 13:41:00,
2013-04-24 08:43:00,33.8,28.0,30.19,West,270,5.0,5.0,79,0.00,,OVC015,0.00,411.00,VWS V14.00,2013-04-24 13:43:00,
2013-04-24 08:44:00,33.9,28.1,30.19,West,275,4.0,6.0,79,0.00,,OVC015,0.00,415.00,VWS V14.00,2013-04-24 13:44:00,
2013-04-24 08:45:00,33.9,28.1,30.19,West,275,4.0,6.0,79,0.00,,OVC015,0.00,415.00,VWS V14.00,2013-04-24 13:45:00,
2013-04-24 08:46:00,34.0,27.9,30.19,West,281,2.0,5.0,78,0.00,,OVC015,0.00,425.00,VWS V14.00,2013-04-24 13:46:00,
2013-04-24 08:48:00,34.2,28.4,30.19,West,281,3.0,5.0,79,0.00,,OVC015,0.00,427.00,VWS V14.00,2013-04-24 13:48:00,
2013-04-24 08:49:00,34.3,28.8,30.19,WNW,289,2.0,2.0,80,0.00,,OVC015,0.00,429.00,VWS V14.00,2013-04-24 13:49:00,
2013-04-24 08:50:00,34.2,28.7,30.19,WNW,289,2.0,5.0,80,0.00,,OVC015,0.00,429.00,VWS V14.00,2013-04-24 13:50:00,
2013-04-24 08:51:00,34.6,29.1,30.19,NW,306,2.0,5.0,80,0.00,,OVC015,0.00,441.00,VWS V14.00,2013-04-24 13:51:00,
2013-04-24 08:54:00,34.9,28.4,30.19,West,277,1.0,4.0,77,0.00,,OVC015,0.00,448.00,VWS V14.00,2013-04-24 13:54:00,
2013-04-24 08:55:00,34.9,28.4,30.19,West,277,4.0,5.0,77,0.00,,OVC015,0.00,448.00,VWS V14.00,2013-04-24 13:55:00,
2013-04-24 08:56:00,35.0,28.5,30.19,WNW,303,3.0,5.0,77,0.00,,OVC015,0.00,457.00,VWS V14.00,2013-04-24 13:56:00,
2013-04-24 08:59:00,35.1,28.6,30.19,WNW,303,1.0,1.0,77,0.00,,OVC015,0.00,466.00,VWS V14.00,2013-04-24 13:59:00,
2013-04-24 09:00:00,35.1,28.9,30.19,NW,304,1.0,4.0,78,0.00,,OVC015,0.00,469.00,VWS V14.00,2013-04-24 14:00:00,
2013-04-24 09:02:00,35.3,29.1,30.19,WNW,292,5.0,5.0,78,0.00,,OVC015,0.00,476.00,VWS V14.00,2013-04-24 14:02:00,
2013-04-24 09:04:00,35.5,29.0,30.19,SW,236,3.0,3.0,77,0.00,,OVC015,0.00,482.00,VWS V14.00,2013-04-24 14:04:00,
2013-04-24 09:05:00,35.6,29.1,30.19,WSW,252,4.0,5.0,77,0.00,,OVC015,0.00,485.00,VWS V14.00,2013-04-24 14:05:00,
2013-04-24 09:07:00,35.7,28.9,30.19,WNW,296,0.0,5.0,76,0.00,,OVC015,0.00,494.00,VWS V14.00,2013-04-24 14:07:00,
2013-04-24 09:09:00,35.9,29.1,30.19,WNW,292,3.0,4.0,76,0.00,,OVC015,0.00,497.00,VWS V14.00,2013-04-24 14:09:00,
2013-04-24 09:10:00,36.0,29.2,30.19,WNW,292,6.0,7.0,76,0.00,,OVC015,0.00,497.00,VWS V14.00,2013-04-24 14:10:00,
2013-04-24 09:12:00,36.2,29.0,30.19,WNW,293,3.0,7.0,75,0.00,,OVC015,0.00,512.00,VWS V14.00,2013-04-24 14:12:00,
2013-04-24 09:14:00,36.5,29.0,30.19,West,281,5.0,6.0,74,0.00,,OVC015,0.00,520.00,VWS V14.00,2013-04-24 14:14:00,
2013-04-24 09:15:00,36.5,29.3,30.19,WNW,300,2.0,6.0,75,0.00,,OVC015,0.00,520.00,VWS V14.00,2013-04-24 14:15:00,
2013-04-24 09:17:00,36.8,29.3,30.19,WNW,285,4.0,6.0,74,0.00,,OVC015,0.00,527.00,VWS V14.00,2013-04-24 14:17:00,
2013-04-24 09:19:00,37.0,29.5,30.18,NW,306,3.0,5.0,74,0.00,,OVC015,0.00,533.00,VWS V14.00,2013-04-24 14:19:00,
2013-04-24 09:20:00,37.0,29.5,30.18,West,269,2.0,6.0,74,0.00,,OVC015,0.00,538.00,VWS V14.00,2013-04-24 14:20:00,
2013-04-24 09:22:00,37.1,29.3,30.18,WNW,294,5.0,7.0,73,0.00,,OVC015,0.00,543.00,VWS V14.00,2013-04-24 14:22:00,
2013-04-24 09:23:00,37.2,29.4,30.18,WNW,287,1.0,7.0,73,0.00,,OVC015,0.00,547.00,VWS V14.00,2013-04-24 14:23:00,
2013-04-24 09:24:00,37.2,29.0,30.18,West,277,3.0,5.0,72,0.00,,OVC015,0.00,550.00,VWS V14.00,2013-04-24 14:24:00,
2013-04-24 09:25:00,37.2,29.0,30.18,West,271,5.0,6.0,72,0.00,,OVC015,0.00,552.00,VWS V14.00,2013-04-24 14:25:00,
2013-04-24 09:27:00,37.4,29.2,30.18,WNW,291,3.0,9.0,72,0.00,,OVC015,0.00,561.00,VWS V14.00,2013-04-24 14:27:00,
2013-04-24 09:28:00,37.4,29.2,30.18,NW,306,6.0,9.0,72,0.00,,OVC015,0.00,563.00,VWS V14.00,2013-04-24 14:28:00,
2013-04-24 09:29:00,37.5,29.6,30.18,West,281,5.0,6.0,73,0.00,,OVC015,0.00,570.00,VWS V14.00,2013-04-24 14:29:00,
2013-04-24 09:30:00,37.6,29.4,30.18,WNW,284,4.0,6.0,72,0.00,,OVC015,0.00,571.00,VWS V14.00,2013-04-24 14:30:00,
2013-04-24 09:31:00,37.7,29.5,30.18,WNW,290,3.0,6.0,72,0.00,,OVC015,0.00,571.00,VWS V14.00,2013-04-24 14:31:00,
2013-04-24 09:33:00,37.8,29.6,30.18,WNW,288,3.0,6.0,72,0.00,,OVC015,0.00,577.00,VWS V14.00,2013-04-24 14:33:00,
2013-04-24 09:34:00,37.9,29.7,30.18,WSW,239,5.0,6.0,72,0.00,,OVC015,0.00,580.00,VWS V14.00,2013-04-24 14:34:00,
2013-04-24 09:35:00,37.9,29.7,30.18,WNW,284,2.0,6.0,72,0.00,,OVC015,0.00,580.00,VWS V14.00,2013-04-24 14:35:00,
2013-04-24 09:36:00,37.9,29.4,30.18,WNW,294,5.0,7.0,71,0.00,,OVC015,0.00,585.00,VWS V14.00,2013-04-24 14:36:00,
2013-04-24 09:38:00,38.1,30.2,30.18,WNW,289,6.0,8.0,73,0.00,,OVC015,0.00,591.00,VWS V14.00,2013-04-24 14:38:00,
2013-04-24 09:40:00,38.3,30.1,30.18,West,269,4.0,6.0,72,0.00,,OVC015,0.00,596.00,VWS V14.00,2013-04-24 14:40:00,
2013-04-24 09:41:00,38.4,30.2,30.19,West,280,3.0,6.0,72,0.00,,OVC015,0.00,599.00,VWS V14.00,2013-04-24 14:41:00,
2013-04-24 09:43:00,38.6,30.4,30.18,WNW,292,5.0,6.0,72,0.00,,OVC015,0.00,606.00,VWS V14.00,2013-04-24 14:43:00,
2013-04-24 09:45:00,38.8,30.2,30.18,SW,234,5.0,6.0,71,0.00,,OVC015,0.00,612.00,VWS V14.00,2013-04-24 14:45:00,
2013-04-24 09:46:00,38.9,30.7,30.18,West,277,4.0,6.0,72,0.00,,OVC015,0.00,617.00,VWS V14.00,2013-04-24 14:46:00,
2013-04-24 09:48:00,39.0,30.4,30.18,WNW,290,2.0,8.0,71,0.00,,OVC015,0.00,619.00,VWS V14.00,2013-04-24 14:48:00,
2013-04-24 09:49:00,39.1,30.9,30.18,West,268,2.0,6.0,72,0.00,,OVC015,0.00,626.00,VWS V14.00,2013-04-24 14:49:00,
2013-04-24 09:50:00,39.2,30.6,30.18,WNW,287,4.0,6.0,71,0.00,,OVC015,0.00,626.00,VWS V14.00,2013-04-24 14:50:00,
2013-04-24 09:51:00,39.3,30.7,30.18,NW,309,5.0,6.0,71,0.00,,OVC015,0.00,629.00,VWS V14.00,2013-04-24 14:51:00,
2013-04-24 09:52:00,39.3,30.7,30.18,WNW,297,5.0,6.0,71,0.00,,OVC015,0.00,633.00,VWS V14.00,2013-04-24 14:52:00,
2013-04-24 09:53:00,39.6,30.6,30.18,NW,317,2.0,6.0,70,0.00,,OVC015,0.00,636.00,VWS V14.00,2013-04-24 14:53:00,
2013-04-24 09:54:00,39.6,30.3,30.18,NNW,331,5.0,5.0,69,0.00,,OVC015,0.00,642.00,VWS V14.00,2013-04-24 14:54:00,
2013-04-24 09:55:00,39.7,30.7,30.18,NNW,327,3.0,6.0,70,0.00,,OVC015,0.00,642.00,VWS V14.00,2013-04-24 14:55:00,
2013-04-24 09:56:00,39.8,30.8,30.18,WNW,290,2.0,7.0,70,0.00,,OVC015,0.00,643.00,VWS V14.00,2013-04-24 14:56:00,
2013-04-24 09:57:00,39.8,30.5,30.18,WNW,289,4.0,7.0,69,0.00,,OVC015,0.00,647.00,VWS V14.00,2013-04-24 14:57:00,
2013-04-24 09:58:00,39.9,30.6,30.18,West,262,5.0,7.0,69,0.00,,OVC015,0.00,652.00,VWS V14.00,2013-04-24 14:58:00,
2013-04-24 10:00:00,39.8,29.8,30.18,WSW,257,5.0,6.0,67,0.00,,OVC015,0.00,654.00,VWS V14.00,2013-04-24 15:00:00,
2013-04-24 10:01:00,39.9,30.9,30.18,NNW,329,1.0,6.0,70,0.00,,OVC015,0.00,657.00,VWS V14.00,2013-04-24 15:01:00,
2013-04-24 10:02:00,39.9,30.9,30.18,SSW,209,4.0,6.0,70,0.00,,OVC015,0.00,659.00,VWS V14.00,2013-04-24 15:02:00,
2013-04-24 10:04:00,40.0,30.7,30.18,NW,323,2.0,6.0,69,0.00,,OVC015,0.00,664.00,VWS V14.00,2013-04-24 15:04:00,
2013-04-24 10:05:00,40.1,30.8,30.18,NW,323,0.0,2.0,69,0.00,,OVC015,0.00,666.00,VWS V14.00,2013-04-24 15:05:00,
2013-04-24 10:09:00,40.6,30.5,30.18,West,271,3.0,6.0,67,0.00,,OVC015,0.00,680.00,VWS V14.00,2013-04-24 15:09:00,
2013-04-24 10:10:00,40.6,30.5,30.18,West,273,2.0,6.0,67,0.00,,OVC015,0.00,682.00,VWS V14.00,2013-04-24 15:10:00,
2013-04-24 10:14:00,40.7,30.6,30.18,West,279,3.0,4.0,67,0.00,,OVC015,0.00,691.00,VWS V14.00,2013-04-24 15:14:00,
2013-04-24 10:15:00,40.7,30.6,30.18,WNW,285,3.0,4.0,67,0.00,,OVC015,0.00,693.00,VWS V14.00,2013-04-24 15:15:00,
2013-04-24 10:16:00,40.8,31.1,30.18,WSW,248,6.0,10.0,68,0.00,,OVC015,0.00,694.00,VWS V14.00,2013-04-24 15:16:00,
2013-04-24 10:19:00,41.0,30.9,30.18,NW,319,4.0,8.0,67,0.00,,OVC015,0.00,703.00,VWS V14.00,2013-04-24 15:19:00,
2013-04-24 10:20:00,41.1,32.4,30.18,NW,311,3.0,8.0,71,0.00,,OVC015,0.00,707.00,VWS V14.00,2013-04-24 15:20:00,
2013-04-24 10:21:00,41.2,31.5,30.18,WSW,240,5.0,8.0,68,0.00,,OVC015,0.00,708.00,VWS V14.00,2013-04-24 15:21:00,
2013-04-24 10:24:00,41.6,31.1,30.18,NW,315,5.0,5.0,66,0.00,,OVC015,0.00,717.00,VWS V14.00,2013-04-24 15:24:00,
2013-04-24 10:25:00,41.6,31.1,30.18,NW,304,6.0,6.0,66,0.00,,OVC015,0.00,717.00,VWS V14.00,2013-04-24 15:25:00,
2013-04-24 10:26:00,41.6,31.5,30.18,NW,311,6.0,6.0,67,0.00,,OVC015,0.00,717.00,VWS V14.00,2013-04-24 15:26:00,
2013-04-24 10:29:00,42.0,31.5,30.18,West,277,2.0,6.0,66,0.00,,OVC015,0.00,731.00,VWS V14.00,2013-04-24 15:29:00,
2013-04-24 10:30:00,42.0,31.1,30.18,WNW,294,4.0,6.0,65,0.00,,OVC015,0.00,731.00,VWS V14.00,2013-04-24 15:30:00,
2013-04-24 10:31:00,42.1,31.6,30.18,West,269,4.0,9.0,66,0.00,,OVC015,0.00,735.00,VWS V14.00,2013-04-24 15:31:00,
2013-04-24 10:35:00,42.4,31.9,30.18,WNW,285,6.0,7.0,66,0.00,,OVC015,0.00,744.00,VWS V14.00,2013-04-24 15:35:00,
2013-04-24 10:36:00,42.5,31.6,30.18,NW,307,5.0,7.0,65,0.00,,OVC015,0.00,747.00,VWS V14.00,2013-04-24 15:36:00,
2013-04-24 10:40:00,42.8,32.6,30.18,WNW,303,3.0,7.0,67,0.00,,OVC015,0.00,756.00,VWS V14.00,2013-04-24 15:40:00,
2013-04-24 10:41:00,42.9,32.7,30.18,NW,304,3.0,7.0,67,0.00,,OVC015,0.00,756.00,VWS V14.00,2013-04-24 15:41:00,
2013-04-24 10:45:00,43.3,32.0,30.18,NW,311,3.0,8.0,64,0.00,,OVC015,0.00,766.00,VWS V14.00,2013-04-24 15:45:00,
2013-04-24 10:46:00,43.3,32.0,30.18,West,261,3.0,8.0,64,0.00,,OVC015,0.00,768.00,VWS V14.00,2013-04-24 15:46:00,
2013-04-24 10:50:00,43.6,32.6,30.18,WNW,295,5.0,7.0,65,0.00,,OVC015,0.00,779.00,VWS V14.00,2013-04-24 15:50:00,
2013-04-24 10:51:00,43.6,32.6,30.18,West,279,4.0,7.0,65,0.00,,OVC015,0.00,780.00,VWS V14.00,2013-04-24 15:51:00,
2013-04-24 10:55:00,43.7,32.0,30.18,WNW,290,1.0,7.0,63,0.00,,OVC015,0.00,788.00,VWS V14.00,2013-04-24 15:55:00,
2013-04-24 10:56:00,43.8,32.4,30.18,WNW,301,2.0,7.0,64,0.00,,OVC015,0.00,793.00,VWS V14.00,2013-04-24 15:56:00,
2013-04-24 10:57:00,43.8,32.4,30.18,NW,311,4.0,7.0,64,0.00,,OVC015,0.00,793.00,VWS V14.00,2013-04-24 15:57:00,
2013-04-24 11:00:00,44.1,33.5,30.18,NW,312,3.0,7.0,66,0.00,,OVC015,0.00,800.00,VWS V14.00,2013-04-24 16:00:00,
2013-04-24 11:01:00,44.5,33.5,30.18,West,269,8.0,8.0,65,0.00,,OVC015,0.00,803.00,VWS V14.00,2013-04-24 16:01:00,
2013-04-24 11:02:00,44.6,32.4,30.18,WNW,284,5.0,8.0,62,0.00,,OVC015,0.00,807.00,VWS V14.00,2013-04-24 16:02:00,
2013-04-24 11:05:00,44.7,32.1,30.18,WNW,295,7.0,8.0,61,0.00,,OVC015,0.00,812.00,VWS V14.00,2013-04-24 16:05:00,
2013-04-24 11:06:00,44.6,31.6,30.18,WNW,286,3.0,7.0,60,0.00,,OVC015,0.00,819.00,VWS V14.00,2013-04-24 16:06:00,
2013-04-24 11:07:00,44.6,31.6,30.18,WNW,295,5.0,7.0,60,0.00,,OVC015,0.00,819.00,VWS V14.00,2013-04-24 16:07:00,
2013-04-24 11:10:00,44.6,32.0,30.18,West,267,4.0,7.0,61,0.00,,OVC015,0.00,823.00,VWS V14.00,2013-04-24 16:10:00,
2013-04-24 11:11:00,44.8,33.0,30.18,WNW,288,4.0,6.0,63,0.00,,OVC015,0.00,824.00,VWS V14.00,2013-04-24 16:11:00,
2013-04-24 11:12:00,44.9,32.3,30.18,West,267,7.0,8.0,61,0.00,,OVC015,0.00,826.00,VWS V14.00,2013-04-24 16:12:00,
2013-04-24 11:15:00,45.1,31.6,30.18,WNW,297,2.0,10.0,59,0.00,,OVC015,0.00,830.00,VWS V14.00,2013-04-24 16:15:00,
2013-04-24 11:16:00,45.2,32.6,30.18,WNW,300,3.0,6.0,61,0.00,,OVC015,0.00,835.00,VWS V14.00,2013-04-24 16:16:00,
2013-04-24 11:17:00,45.3,32.2,30.18,WSW,249,6.0,9.0,60,0.00,,OVC015,0.00,835.00,VWS V14.00,2013-04-24 16:17:00,
2013-04-24 11:18:00,45.4,31.5,30.18,WNW,302,6.0,9.0,58,0.00,,OVC015,0.00,838.00,VWS V14.00,2013-04-24 16:18:00,
2013-04-24 11:20:00,45.4,31.5,30.18,West,271,5.0,9.0,58,0.00,,OVC015,0.00,840.00,VWS V14.00,2013-04-24 16:20:00,
2013-04-24 11:21:00,45.4,30.6,30.17,West,278,6.0,6.0,56,0.00,,OVC015,0.00,846.00,VWS V14.00,2013-04-24 16:21:00,
2013-04-24 11:22:00,45.4,31.9,30.17,WNW,292,3.0,6.0,59,0.00,,OVC015,0.00,849.00,VWS V14.00,2013-04-24 16:22:00,
2013-04-24 11:23:00,45.4,31.9,30.17,WNW,288,7.0,7.0,59,0.00,,OVC015,0.00,846.00,VWS V14.00,2013-04-24 16:23:00,
2013-04-24 11:25:00,45.5,31.6,30.17,WNW,294,6.0,9.0,58,0.00,,OVC015,0.00,851.00,VWS V14.00,2013-04-24 16:25:00,
2013-04-24 11:26:00,45.5,30.7,30.17,NW,311,4.0,9.0,56,0.00,,OVC015,0.00,854.00,VWS V14.00,2013-04-24 16:26:00,
2013-04-24 11:27:00,45.5,31.6,30.17,WNW,294,3.0,9.0,58,0.00,,OVC015,0.00,796.00,VWS V14.00,2013-04-24 16:27:00,
2013-04-24 11:28:00,45.5,31.6,30.17,WNW,294,3.0,9.0,58,0.00,,OVC015,0.00,796.00,VWS V14.00,2013-04-24 16:28:00,
2013-04-24 11:30:00,45.6,31.7,30.17,WNW,295,3.0,9.0,58,0.00,,OVC015,0.00,803.00,VWS V14.00,2013-04-24 16:30:00,
2013-04-24 11:31:00,45.9,32.4,30.17,WSW,246,3.0,7.0,59,0.00,,OVC015,0.00,861.00,VWS V14.00,2013-04-24 16:31:00,
2013-04-24 11:33:00,46.0,31.6,30.17,NW,304,2.0,7.0,57,0.00,,OVC015,0.00,867.00,VWS V14.00,2013-04-24 16:33:00,
2013-04-24 11:35:00,46.0,32.1,30.17,NW,308,4.0,7.0,58,0.00,,OVC015,0.00,868.00,VWS V14.00,2013-04-24 16:35:00,
2013-04-24 11:37:00,46.4,32.0,30.17,SW,226,4.0,9.0,57,0.00,,OVC015,0.00,872.00,VWS V14.00,2013-04-24 16:37:00,
2013-04-24 11:38:00,46.4,31.1,30.17,West,263,3.0,10.0,55,0.00,,OVC015,0.00,872.00,VWS V14.00,2013-04-24 16:38:00,
2013-04-24 11:39:00,46.3,31.0,30.17,West,265,5.0,5.0,55,0.00,,OVC015,0.00,879.00,VWS V14.00,2013-04-24 16:39:00,
2013-04-24 11:40:00,46.3,30.1,30.17,WSW,254,5.0,10.0,53,0.00,,OVC015,0.00,877.00,VWS V14.00,2013-04-24 16:40:00,
2013-04-24 11:43:00,46.3,31.5,30.16,NW,309,5.0,7.0,56,0.00,,OVC015,0.00,881.00,VWS V14.00,2013-04-24 16:43:00,
2013-04-24 11:44:00,46.5,32.1,30.16,NW,307,3.0,4.0,57,0.00,,OVC015,0.00,886.00,VWS V14.00,2013-04-24 16:44:00,
2013-04-24 11:45:00,46.4,32.4,30.16,NW,309,2.0,7.0,58,0.00,,OVC015,0.00,886.00,VWS V14.00,2013-04-24 16:45:00,
2013-04-24 11:48:00,46.7,31.9,30.16,WNW,294,7.0,9.0,56,0.00,,OVC015,0.00,886.00,VWS V14.00,2013-04-24 16:48:00,
2013-04-24 11:49:00,46.8,32.0,30.16,WNW,294,3.0,4.0,56,0.00,,OVC015,0.00,889.00,VWS V14.00,2013-04-24 16:49:00,
2013-04-24 11:50:00,46.8,32.0,30.16,WNW,290,4.0,9.0,56,0.00,,OVC015,0.00,889.00,VWS V14.00,2013-04-24 16:50:00,
2013-04-24 11:53:00,47.2,32.8,30.16,WNW,285,5.0,10.0,57,0.00,,OVC015,0.00,893.00,VWS V14.00,2013-04-24 16:53:00,
2013-04-24 11:54:00,47.3,32.0,30.16,West,277,2.0,4.0,55,0.00,,OVC015,0.00,896.00,VWS V14.00,2013-04-24 16:54:00,
2013-04-24 11:55:00,47.3,32.0,30.16,West,278,0.0,4.0,55,0.00,,OVC015,0.00,896.00,VWS V14.00,2013-04-24 16:55:00,
2013-04-24 11:59:00,47.3,32.0,30.16,West,269,1.0,7.0,55,0.00,,OVC015,0.00,902.00,VWS V14.00,2013-04-24 16:59:00,
2013-04-24 12:00:00,47.3,31.5,30.16,SSW,211,7.0,7.0,54,0.00,,OVC015,0.00,902.00,VWS V14.00,2013-04-24 17:00:00,
2013-04-24 12:04:00,47.4,31.6,30.16,WNW,300,0.0,3.0,54,0.00,,OVC015,0.00,902.00,VWS V14.00,2013-04-24 17:04:00,
2013-04-24 12:05:00,47.4,31.6,30.16,WNW,300,0.0,3.0,54,0.00,,OVC015,0.00,902.00,VWS V14.00,2013-04-24 17:05:00,
2013-04-24 12:06:00,47.4,31.1,30.16,WSW,245,5.0,7.0,53,0.00,,OVC015,0.00,905.00,VWS V14.00,2013-04-24 17:06:00,
2013-04-24 12:09:00,47.5,32.6,30.16,West,264,5.0,5.0,56,0.00,,OVC015,0.00,912.00,VWS V14.00,2013-04-24 17:09:00,
2013-04-24 12:10:00,47.5,32.6,30.16,SW,234,5.0,9.0,56,0.00,,OVC015,0.00,912.00,VWS V14.00,2013-04-24 17:10:00,
2013-04-24 12:11:00,47.6,33.1,30.16,SW,220,8.0,9.0,57,0.00,,OVC015,0.00,916.00,VWS V14.00,2013-04-24 17:11:00,
2013-04-24 12:14:00,47.6,31.8,30.16,WSW,252,5.0,7.0,54,0.00,,OVC015,0.00,918.00,VWS V14.00,2013-04-24 17:14:00,
2013-04-24 12:15:00,47.6,31.8,30.16,WSW,257,3.0,7.0,54,0.00,,OVC015,0.00,918.00,VWS V14.00,2013-04-24 17:15:00,
2013-04-24 12:16:00,47.6,31.8,30.16,SW,221,6.0,7.0,54,0.00,,OVC015,0.00,916.00,VWS V14.00,2013-04-24 17:16:00,
2013-04-24 12:19:00,47.4,29.7,30.16,SSW,202,8.0,8.0,50,0.00,,OVC015,0.00,921.00,VWS V14.00,2013-04-24 17:19:00,
2013-04-24 12:20:00,47.4,29.7,30.16,SSW,211,8.0,8.0,50,0.00,,OVC015,0.00,921.00,VWS V14.00,2013-04-24 17:20:00,
2013-04-24 12:21:00,47.2,30.0,30.16,SW,217,3.0,8.0,51,0.00,,OVC015,0.00,921.00,VWS V14.00,2013-04-24 17:21:00,
2013-04-24 12:25:00,47.4,31.1,30.16,WNW,298,2.0,6.0,53,0.00,,OVC015,0.00,919.00,VWS V14.00,2013-04-24 17:25:00,
2013-04-24 12:26:00,47.5,32.2,30.16,WNW,287,0.0,6.0,55,0.00,,OVC015,0.00,914.00,VWS V14.00,2013-04-24 17:26:00,
2013-04-24 12:30:00,48.1,31.8,30.16,WSW,242,5.0,5.0,53,0.00,,OVC015,0.00,925.00,VWS V14.00,2013-04-24 17:30:00,
2013-04-24 12:31:00,48.3,32.0,30.16,West,273,5.0,7.0,53,0.00,,OVC015,0.00,926.00,VWS V14.00,2013-04-24 17:31:00,
2013-04-24 12:32:00,48.3,32.0,30.16,West,277,5.0,11.0,53,0.00,,OVC015,0.00,921.00,VWS V14.00,2013-04-24 17:32:00,
2013-04-24 12:35:00,48.2,32.3,30.16,West,267,8.0,10.0,54,0.00,,OVC015,0.00,921.00,VWS V14.00,2013-04-24 17:35:00,
2013-04-24 12:36:00,48.3,32.4,30.16,WNW,300,5.0,11.0,54,0.00,,OVC015,0.00,930.00,VWS V14.00,2013-04-24 17:36:00,
2013-04-24 12:37:00,48.5,33.1,30.16,WNW,298,5.0,11.0,55,0.00,,OVC015,0.00,937.00,VWS V14.00,2013-04-24 17:37:00,
2013-04-24 12:40:00,48.6,31.8,30.16,North,355,5.0,5.0,52,0.00,,OVC015,0.00,935.00,VWS V14.00,2013-04-24 17:40:00,
2013-04-24 12:41:00,48.6,31.3,30.16,WNW,287,5.0,5.0,51,0.00,,OVC015,0.00,935.00,VWS V14.00,2013-04-24 17:41:00,
2013-04-24 12:42:00,48.7,35.0,30.15,WNW,283,5.0,5.0,59,0.00,,OVC015,0.00,958.00,VWS V14.00,2013-04-24 17:42:00,
2013-04-24 12:45:00,48.6,32.7,30.15,SSW,209,6.0,11.0,54,0.00,,OVC015,0.00,944.00,VWS V14.00,2013-04-24 17:45:00,
2013-04-24 12:46:00,48.6,32.7,30.15,SSW,204,7.0,11.0,54,0.00,,OVC015,0.00,944.00,VWS V14.00,2013-04-24 17:46:00,
2013-04-24 12:47:00,48.5,32.2,30.15,SW,225,5.0,11.0,53,0.00,,OVC015,0.00,944.00,VWS V14.00,2013-04-24 17:47:00,
2013-04-24 12:50:00,48.5,32.2,30.15,WSW,254,5.0,11.0,53,0.00,,OVC015,0.00,946.00,VWS V14.00,2013-04-24 17:50:00,
2013-04-24 12:51:00,48.4,31.6,30.15,SSW,212,10.0,10.0,52,0.00,,OVC015,0.00,942.00,VWS V14.00,2013-04-24 17:51:00,
2013-04-24 12:53:00,48.3,32.4,30.15,SW,221,2.0,13.0,54,0.00,,OVC015,0.00,953.00,VWS V14.00,2013-04-24 17:53:00,
2013-04-24 12:55:00,48.3,32.4,30.15,WSW,258,2.0,13.0,54,0.00,,OVC015,0.00,958.00,VWS V14.00,2013-04-24 17:55:00,
2013-04-24 12:56:00,48.4,32.5,30.15,WSW,250,0.0,8.0,54,0.00,,OVC015,0.00,979.00,VWS V14.00,2013-04-24 17:56:00,
2013-04-24 12:58:00,48.6,34.1,30.15,WNW,302,6.0,8.0,57,0.00,,OVC015,0.00,962.00,VWS V14.00,2013-04-24 17:58:00,
2013-04-24 13:00:00,48.7,35.9,30.15,NNW,336,4.0,8.0,61,0.00,,OVC015,0.00,944.00,VWS V14.00,2013-04-24 18:00:00,
2013-04-24 13:01:00,49.1,34.1,30.14,WSW,242,4.0,6.0,56,0.00,,OVC015,0.00,939.00,VWS V14.00,2013-04-24 18:01:00,
2013-04-24 13:02:00,49.2,34.6,30.15,SW,233,5.0,9.0,57,0.00,,OVC015,0.00,947.00,VWS V14.00,2013-04-24 18:02:00,
2013-04-24 13:03:00,49.4,33.5,30.15,West,259,7.0,10.0,54,0.00,,OVC015,0.00,944.00,VWS V14.00,2013-04-24 18:03:00,
2013-04-24 13:05:00,49.4,33.5,30.15,West,271,4.0,10.0,54,0.00,,OVC015,0.00,944.00,VWS V14.00,2013-04-24 18:05:00,
2013-04-24 13:06:00,49.4,31.6,30.14,WSW,252,4.0,10.0,50,0.00,,OVC015,0.00,940.00,VWS V14.00,2013-04-24 18:06:00,
2013-04-24 13:07:00,49.3,32.4,30.14,West,272,2.0,10.0,52,0.00,,OVC015,0.00,940.00,VWS V14.00,2013-04-24 18:07:00,
2013-04-24 13:08:00,49.3,32.9,30.14,WSW,254,5.0,10.0,53,0.00,,OVC015,0.00,942.00,VWS V14.00,2013-04-24 18:08:00,
2013-04-24 13:10:00,49.3,31.0,30.14,WNW,298,6.0,10.0,49,0.00,,OVC015,0.00,935.00,VWS V14.00,2013-04-24 18:10:00,
2013-04-24 13:11:00,49.5,33.1,30.15,SW,219,6.0,10.0,53,0.00,,OVC015,0.00,944.00,VWS V14.00,2013-04-24 18:11:00,
2013-04-24 13:12:00,49.5,33.1,30.14,SW,225,6.0,10.0,53,0.00,,OVC015,0.00,940.00,VWS V14.00,2013-04-24 18:12:00,
2013-04-24 13:13:00,49.4,32.0,30.14,WSW,254,4.0,10.0,51,0.00,,OVC015,0.00,940.00,VWS V14.00,2013-04-24 18:13:00,
2013-04-24 13:15:00,49.4,32.0,30.14,WSW,250,4.0,10.0,51,0.00,,OVC015,0.00,940.00,VWS V14.00,2013-04-24 18:15:00,
2013-04-24 13:16:00,49.2,30.9,30.14,West,275,1.0,9.0,49,0.00,,OVC015,0.00,935.00,VWS V14.00,2013-04-24 18:16:00,
2013-04-24 13:17:00,49.2,30.9,30.14,SW,219,6.0,9.0,49,0.00,,OVC015,0.00,937.00,VWS V14.00,2013-04-24 18:17:00,
2013-04-24 13:18:00,49.2,31.9,30.14,WSW,257,7.0,10.0,51,0.00,,OVC015,0.00,937.00,VWS V14.00,2013-04-24 18:18:00,
2013-04-24 13:20:00,49.1,31.3,30.14,West,278,4.0,10.0,50,0.00,,OVC015,0.00,935.00,VWS V14.00,2013-04-24 18:20:00,
2013-04-24 13:21:00,49.3,32.9,30.14,WNW,290,5.0,9.0,53,0.00,,OVC015,0.00,930.00,VWS V14.00,2013-04-24 18:21:00,
2013-04-24 13:22:00,49.4,33.0,30.14,West,272,3.0,9.0,53,0.00,,OVC015,0.00,939.00,VWS V14.00,2013-04-24 18:22:00,
2013-04-24 13:23:00,49.4,31.1,30.14,SSW,213,6.0,9.0,49,0.00,,OVC015,0.00,937.00,VWS V14.00,2013-04-24 18:23:00,
2013-04-24 13:24:00,49.5,32.6,30.14,WSW,242,6.0,9.0,52,0.00,,OVC015,0.00,935.00,VWS V14.00,2013-04-24 18:24:00,
2013-04-24 13:25:00,49.5,32.6,30.14,WSW,238,5.0,9.0,52,0.00,,OVC015,0.00,935.00,VWS V14.00,2013-04-24 18:25:00,
2013-04-24 13:26:00,49.6,32.2,30.14,WSW,240,5.0,10.0,51,0.00,,OVC015,0.00,935.00,VWS V14.00,2013-04-24 18:26:00,
2013-04-24 13:27:00,49.7,30.8,30.14,WNW,286,4.0,10.0,48,0.00,,OVC015,0.00,935.00,VWS V14.00,2013-04-24 18:27:00,
2013-04-24 13:28:00,49.6,30.7,30.14,WNW,295,6.0,10.0,48,0.00,,OVC015,0.00,932.00,VWS V14.00,2013-04-24 18:28:00,
2013-04-24 13:29:00,49.7,31.3,30.14,WSW,246,7.0,10.0,49,0.00,,OVC015,0.00,933.00,VWS V14.00,2013-04-24 18:29:00,
2013-04-24 13:30:00,49.7,31.3,30.14,WSW,246,5.0,10.0,49,0.00,,OVC015,0.00,933.00,VWS V14.00,2013-04-24 18:30:00,
2013-04-24 13:31:00,49.7,31.3,30.13,SSW,208,12.0,17.0,49,0.00,,OVC015,0.00,932.00,VWS V14.00,2013-04-24 18:31:00,
2013-04-24 13:33:00,49.6,31.2,30.13,SW,236,4.0,17.0,49,0.00,,OVC015,0.00,933.00,VWS V14.00,2013-04-24 18:33:00,
2013-04-24 13:34:00,49.6,33.2,30.13,SW,217,5.0,17.0,53,0.00,,OVC015,0.00,928.00,VWS V14.00,2013-04-24 18:34:00,
2013-04-24 13:35:00,49.6,33.2,30.13,SW,217,5.0,17.0,53,0.00,,OVC015,0.00,928.00,VWS V14.00,2013-04-24 18:35:00,
2013-04-24 13:37:00,49.9,32.0,30.13,WSW,250,5.0,8.0,50,0.00,,OVC015,0.00,923.00,VWS V14.00,2013-04-24 18:37:00,
2013-04-24 13:38:00,49.9,30.5,30.13,WSW,252,4.0,8.0,47,0.00,,OVC015,0.00,925.00,VWS V14.00,2013-04-24 18:38:00,
2013-04-24 13:39:00,49.9,32.0,30.13,WSW,243,10.0,10.0,50,0.00,,OVC015,0.00,923.00,VWS V14.00,2013-04-24 18:39:00,
2013-04-24 13:40:00,49.9,32.0,30.13,WSW,242,11.0,11.0,50,0.00,,OVC015,0.00,923.00,VWS V14.00,2013-04-24 18:40:00,
2013-04-24 13:42:00,50.0,31.1,30.13,West,273,8.0,13.0,48,0.00,,OVC015,0.00,928.00,VWS V14.00,2013-04-24 18:42:00,
2013-04-24 13:43:00,50.0,31.6,30.13,WSW,254,4.0,13.0,49,0.00,,OVC015,0.00,926.00,VWS V14.00,2013-04-24 18:43:00,
2013-04-24 13:44:00,50.1,31.2,30.13,WSW,253,3.0,13.0,48,0.00,,OVC015,0.00,926.00,VWS V14.00,2013-04-24 18:44:00,
2013-04-24 13:45:00,50.1,31.2,30.13,West,277,2.0,13.0,48,0.00,,OVC015,0.00,926.00,VWS V14.00,2013-04-24 18:45:00,
2013-04-24 13:47:00,50.0,30.0,30.13,SW,233,7.0,9.0,46,0.00,,OVC015,0.00,923.00,VWS V14.00,2013-04-24 18:47:00,
2013-04-24 13:49:00,49.9,30.0,30.13,SW,224,5.0,5.0,46,0.00,,OVC015,0.00,919.00,VWS V14.00,2013-04-24 18:49:00,
2013-04-24 13:50:00,49.9,30.5,30.13,WSW,238,3.0,9.0,47,0.00,,OVC015,0.00,919.00,VWS V14.00,2013-04-24 18:50:00,
2013-04-24 13:52:00,50.2,32.8,30.12,WSW,246,8.0,8.0,51,0.00,,OVC015,0.00,918.00,VWS V14.00,2013-04-24 18:52:00,
2013-04-24 13:54:00,50.4,31.5,30.12,WSW,254,5.0,7.0,48,0.00,,OVC015,0.00,918.00,VWS V14.00,2013-04-24 18:54:00,
2013-04-24 13:55:00,50.5,31.0,30.12,West,263,4.0,7.0,47,0.00,,OVC015,0.00,916.00,VWS V14.00,2013-04-24 18:55:00,
2013-04-24 13:57:00,50.6,31.6,30.12,NW,304,3.0,9.0,48,0.00,,OVC015,0.00,911.00,VWS V14.00,2013-04-24 18:57:00,
2013-04-24 13:59:00,50.8,30.2,30.12,SW,217,5.0,7.0,45,0.00,,OVC015,0.00,911.00,VWS V14.00,2013-04-24 18:59:00,
2013-04-24 14:00:00,50.9,29.2,30.12,WSW,238,4.0,13.0,43,0.00,,OVC015,0.00,907.00,VWS V14.00,2013-04-24 19:00:00,
2013-04-24 14:02:00,50.8,30.2,30.12,WSW,237,3.0,13.0,45,0.00,,OVC015,0.00,907.00,VWS V14.00,2013-04-24 19:02:00,
2013-04-24 14:04:00,50.9,30.3,30.12,SSW,198,6.0,8.0,45,0.00,,OVC015,0.00,907.00,VWS V14.00,2013-04-24 19:04:00,
2013-04-24 14:05:00,50.9,30.3,30.12,WSW,254,6.0,8.0,45,0.00,,OVC015,0.00,905.00,VWS V14.00,2013-04-24 19:05:00,
2013-04-24 14:07:00,50.9,32.4,30.12,WSW,243,7.0,11.0,49,0.00,,OVC015,0.00,896.00,VWS V14.00,2013-04-24 19:07:00,
2013-04-24 14:09:00,50.9,30.9,30.12,WNW,293,3.0,11.0,46,0.00,,OVC015,0.00,898.00,VWS V14.00,2013-04-24 19:09:00,
2013-04-24 14:10:00,50.8,29.7,30.12,WSW,257,6.0,11.0,44,0.00,,OVC015,0.00,896.00,VWS V14.00,2013-04-24 19:10:00,
2013-04-24 14:11:00,50.8,29.7,30.12,West,279,7.0,11.0,44,0.00,,OVC015,0.00,896.00,VWS V14.00,2013-04-24 19:11:00,
2013-04-24 14:13:00,50.7,30.1,30.12,West,265,6.0,11.0,45,0.00,,OVC015,0.00,893.00,VWS V14.00,2013-04-24 19:13:00,
2013-04-24 14:14:00,50.6,28.4,30.12,WNW,289,4.0,12.0,42,0.00,,OVC015,0.00,888.00,VWS V14.00,2013-04-24 19:14:00,
2013-04-24 14:15:00,50.6,28.4,30.12,West,265,6.0,11.0,42,0.00,,OVC015,0.00,893.00,VWS V14.00,2013-04-24 19:15:00,
2013-04-24 14:16:00,50.6,28.4,30.12,WSW,238,6.0,12.0,42,0.00,,OVC015,0.00,888.00,VWS V14.00,2013-04-24 19:16:00,
2013-04-24 14:18:00,50.5,30.5,30.12,WSW,242,7.0,13.0,46,0.00,,OVC015,0.00,886.00,VWS V14.00,2013-04-24 19:18:00,
2013-04-24 14:19:00,50.5,30.0,30.12,WSW,251,4.0,5.0,45,0.00,,OVC015,0.00,882.00,VWS V14.00,2013-04-24 19:19:00,
2013-04-24 14:20:00,50.5,30.0,30.12,SW,232,4.0,13.0,45,0.00,,OVC015,0.00,886.00,VWS V14.00,2013-04-24 19:20:00,
2013-04-24 14:21:00,50.6,30.6,30.12,WSW,251,7.0,13.0,46,0.00,,OVC015,0.00,881.00,VWS V14.00,2013-04-24 19:21:00,
2013-04-24 14:24:00,50.8,31.3,30.12,West,279,6.0,7.0,47,0.00,,OVC015,0.00,875.00,VWS V14.00,2013-04-24 19:24:00,
2013-04-24 14:25:00,50.9,29.2,30.12,West,277,2.0,7.0,43,0.00,,OVC015,0.00,877.00,VWS V14.00,2013-04-24 19:25:00,
2013-04-24 14:26:00,50.9,29.8,30.12,WSW,242,11.0,11.0,44,0.00,,OVC015,0.00,879.00,VWS V14.00,2013-04-24 19:26:00,
2013-04-24 14:29:00,50.9,28.6,30.12,WSW,242,4.0,4.0,42,0.00,,OVC015,0.00,875.00,VWS V14.00,2013-04-24 19:29:00,
2013-04-24 14:30:00,50.9,28.1,30.12,WSW,240,6.0,10.0,41,0.00,,OVC015,0.00,875.00,VWS V14.00,2013-04-24 19:30:00,
2013-04-24 14:31:00,50.9,29.2,30.12,WNW,287,9.0,10.0,43,0.00,,OVC015,0.00,872.00,VWS V14.00,2013-04-24 19:31:00,
2013-04-24 14:34:00,51.0,29.3,30.11,SW,234,6.0,9.0,43,0.00,,OVC015,0.00,868.00,VWS V14.00,2013-04-24 19:34:00,
2013-04-24 14:35:00,51.0,31.0,30.11,WSW,244,5.0,9.0,46,0.00,,OVC015,0.00,858.00,VWS V14.00,2013-04-24 19:35:00,
2013-04-24 14:36:00,51.0,30.4,30.11,West,262,4.0,10.0,45,0.00,,OVC015,0.00,858.00,VWS V14.00,2013-04-24 19:36:00,
2013-04-24 14:37:00,51.1,29.4,30.11,SW,221,6.0,10.0,43,0.00,,OVC015,0.00,861.00,VWS V14.00,2013-04-24 19:37:00,
2013-04-24 14:39:00,51.0,29.9,30.11,WNW,300,4.0,9.0,44,0.00,,OVC015,0.00,861.00,VWS V14.00,2013-04-24 19:39:00,
2013-04-24 14:40:00,51.1,29.4,30.11,WSW,248,6.0,9.0,43,0.00,,OVC015,0.00,856.00,VWS V14.00,2013-04-24 19:40:00,
2013-04-24 14:41:00,51.1,28.2,30.11,West,281,2.0,9.0,41,0.00,,OVC015,0.00,854.00,VWS V14.00,2013-04-24 19:41:00,
2013-04-24 14:42:00,51.1,28.2,30.11,WNW,292,3.0,9.0,41,0.00,,OVC015,0.00,854.00,VWS V14.00,2013-04-24 19:42:00,
2013-04-24 14:44:00,51.2,28.9,30.11,SW,219,8.0,9.0,42,0.00,,OVC015,0.00,853.00,VWS V14.00,2013-04-24 19:44:00,
2013-04-24 14:45:00,51.1,28.8,30.11,WSW,245,4.0,12.0,42,0.00,,OVC015,0.00,853.00,VWS V14.00,2013-04-24 19:45:00,
2013-04-24 14:46:00,51.2,28.9,30.11,SW,221,7.0,11.0,42,0.00,,OVC015,0.00,851.00,VWS V14.00,2013-04-24 19:46:00,
2013-04-24 14:47:00,51.4,30.8,30.11,WSW,253,9.0,11.0,45,0.00,,OVC015,0.00,847.00,VWS V14.00,2013-04-24 19:47:00,
2013-04-24 14:49:00,51.5,29.8,30.11,West,265,6.0,7.0,43,0.00,,OVC015,0.00,842.00,VWS V14.00,2013-04-24 19:49:00,
2013-04-24 14:50:00,51.5,28.0,30.11,West,266,6.0,11.0,40,0.00,,OVC015,0.00,846.00,VWS V14.00,2013-04-24 19:50:00,
2013-04-24 14:51:00,51.6,29.3,30.11,West,275,2.0,10.0,42,0.00,,OVC015,0.00,840.00,VWS V14.00,2013-04-24 19:51:00,
2013-04-24 14:52:00,51.6,28.7,30.11,SSW,198,9.0,10.0,41,0.00,,OVC015,0.00,835.00,VWS V14.00,2013-04-24 19:52:00,
2013-04-24 14:55:00,51.5,29.2,30.11,SW,234,6.0,10.0,42,0.00,,OVC015,0.00,835.00,VWS V14.00,2013-04-24 19:55:00,
2013-04-24 14:56:00,51.5,29.8,30.11,SW,234,7.0,10.0,43,0.00,,OVC015,0.00,826.00,VWS V14.00,2013-04-24 19:56:00,
2013-04-24 14:57:00,51.5,29.8,30.11,West,266,8.0,11.0,43,0.00,,OVC015,0.00,824.00,VWS V14.00,2013-04-24 19:57:00,
2013-04-24 15:00:00,51.6,29.9,30.11,SSW,213,10.0,13.0,43,0.00,,OVC015,0.00,814.00,VWS V14.00,2013-04-24 20:00:00,
2013-04-24 15:01:00,51.7,31.6,30.10,West,271,3.0,13.0,46,0.00,,OVC015,0.00,814.00,VWS V14.00,2013-04-24 20:01:00,
2013-04-24 15:02:00,51.7,30.5,30.11,SW,236,11.0,13.0,44,0.00,,OVC015,0.00,812.00,VWS V14.00,2013-04-24 20:02:00,
2013-04-24 15:03:00,51.7,29.9,30.11,SSW,211,8.0,13.0,43,0.00,,OVC015,0.00,814.00,VWS V14.00,2013-04-24 20:03:00,
2013-04-24 15:05:00,51.8,30.0,30.11,SW,231,7.0,10.0,43,0.00,,OVC015,0.00,798.00,VWS V14.00,2013-04-24 20:05:00,
2013-04-24 15:06:00,51.9,30.1,30.11,WSW,245,7.0,10.0,43,0.00,,OVC015,0.00,807.00,VWS V14.00,2013-04-24 20:06:00,
2013-04-24 15:07:00,51.9,30.1,30.11,West,262,5.0,10.0,43,0.00,,OVC015,0.00,809.00,VWS V14.00,2013-04-24 20:07:00,
2013-04-24 15:08:00,52.0,30.2,30.11,WSW,244,6.0,10.0,43,0.00,,OVC015,0.00,807.00,VWS V14.00,2013-04-24 20:08:00,
2013-04-24 15:10:00,52.3,29.9,30.11,SSW,201,7.0,10.0,42,0.00,,OVC015,0.00,802.00,VWS V14.00,2013-04-24 20:10:00,
2013-04-24 15:11:00,52.4,30.0,30.11,SW,227,10.0,10.0,42,0.00,,OVC015,0.00,796.00,VWS V14.00,2013-04-24 20:11:00,
2013-04-24 15:12:00,52.4,28.8,30.11,WSW,256,6.0,11.0,40,0.00,,OVC015,0.00,795.00,VWS V14.00,2013-04-24 20:12:00,
2013-04-24 15:13:00,52.4,28.2,30.11,SW,222,7.0,11.0,39,0.00,,OVC015,0.00,796.00,VWS V14.00,2013-04-24 20:13:00,
2013-04-24 15:15:00,52.3,29.9,30.11,SW,234,10.0,12.0,42,0.00,,OVC015,0.00,788.00,VWS V14.00,2013-04-24 20:15:00,
2013-04-24 15:17:00,52.2,30.4,30.10,SW,227,7.0,12.0,43,0.00,,OVC015,0.00,780.00,VWS V14.00,2013-04-24 20:17:00,
2013-04-24 15:18:00,52.2,29.8,30.11,West,273,7.0,12.0,42,0.00,,OVC015,0.00,780.00,VWS V14.00,2013-04-24 20:18:00,
2013-04-24 15:20:00,52.4,29.4,30.11,WSW,243,7.0,11.0,41,0.00,,OVC015,0.00,780.00,VWS V14.00,2013-04-24 20:20:00,
2013-04-24 15:22:00,52.7,30.3,30.11,SW,214,8.0,12.0,42,0.00,,OVC015,0.00,772.00,VWS V14.00,2013-04-24 20:22:00,
2013-04-24 15:23:00,52.7,30.3,30.10,SW,221,9.0,12.0,42,0.00,,OVC015,0.00,772.00,VWS V14.00,2013-04-24 20:23:00,
2013-04-24 15:25:00,52.7,30.9,30.10,WSW,252,4.0,12.0,43,0.00,,OVC015,0.00,770.00,VWS V14.00,2013-04-24 20:25:00,
2013-04-24 15:26:00,52.8,29.2,30.10,West,259,11.0,11.0,40,0.00,,OVC015,0.00,768.00,VWS V14.00,2013-04-24 20:26:00,
2013-04-24 15:28:00,52.9,28.6,30.10,West,271,8.0,12.0,39,0.00,,OVC015,0.00,759.00,VWS V14.00,2013-04-24 20:28:00,
2013-04-24 15:30:00,52.9,29.2,30.10,SW,215,18.0,21.0,40,0.00,,OVC015,0.00,756.00,VWS V14.00,2013-04-24 20:30:00,
2013-04-24 15:31:00,52.7,29.1,30.10,SSW,202,9.0,18.0,40,0.00,,OVC015,0.00,747.00,VWS V14.00,2013-04-24 20:31:00,
2013-04-24 15:33:00,52.6,29.6,30.10,SW,234,12.0,18.0,41,0.00,,OVC015,0.00,744.00,VWS V14.00,2013-04-24 20:33:00,
2013-04-24 15:34:00,52.5,28.3,30.10,WSW,249,5.0,10.0,39,0.00,,OVC015,0.00,745.00,VWS V14.00,2013-04-24 20:34:00,
2013-04-24 15:35:00,52.5,29.5,30.10,WSW,239,10.0,18.0,41,0.00,,OVC015,0.00,745.00,VWS V14.00,2013-04-24 20:35:00,
2013-04-24 15:36:00,52.5,31.2,30.10,WSW,244,4.0,12.0,44,0.00,,OVC015,0.00,740.00,VWS V14.00,2013-04-24 20:36:00,
2013-04-24 15:38:00,52.9,28.6,30.10,WSW,247,7.0,17.0,39,0.00,,OVC015,0.00,737.00,VWS V14.00,2013-04-24 20:38:00,
2013-04-24 15:39:00,52.9,28.0,30.10,WSW,243,9.0,12.0,38,0.00,,OVC015,0.00,737.00,VWS V14.00,2013-04-24 20:39:00,
2013-04-24 15:40:00,52.9,28.6,30.10,SW,221,10.0,17.0,39,0.00,,OVC015,0.00,737.00,VWS V14.00,2013-04-24 20:40:00,
2013-04-24 15:41:00,52.8,27.9,30.10,WNW,300,8.0,12.0,38,0.00,,OVC015,0.00,731.00,VWS V14.00,2013-04-24 20:41:00,
2013-04-24 15:43:00,52.8,27.3,30.10,WSW,253,3.0,12.0,37,0.00,,OVC015,0.00,726.00,VWS V14.00,2013-04-24 20:43:00,
2013-04-24 15:44:00,52.8,27.3,30.10,WNW,286,2.0,12.0,37,0.00,,OVC015,0.00,726.00,VWS V14.00,2013-04-24 20:44:00,
2013-04-24 15:45:00,52.8,27.3,30.10,WNW,288,4.0,12.0,37,0.00,,OVC015,0.00,726.00,VWS V14.00,2013-04-24 20:45:00,
2013-04-24 15:47:00,53.1,28.2,30.10,West,272,2.0,8.0,38,0.00,,OVC015,0.00,715.00,VWS V14.00,2013-04-24 20:47:00,
2013-04-24 15:48:00,53.2,29.5,30.10,WSW,238,6.0,10.0,40,0.00,,OVC015,0.00,714.00,VWS V14.00,2013-04-24 20:48:00,
2013-04-24 15:49:00,53.3,29.6,30.10,SW,232,4.0,10.0,40,0.00,,OVC015,0.00,710.00,VWS V14.00,2013-04-24 20:49:00,
2013-04-24 15:50:00,53.3,29.6,30.10,SW,232,4.0,10.0,40,0.00,,OVC015,0.00,710.00,VWS V14.00,2013-04-24 20:50:00,
2013-04-24 15:52:00,53.4,27.8,30.10,West,281,6.0,11.0,37,0.00,,OVC015,0.00,705.00,VWS V14.00,2013-04-24 20:52:00,
2013-04-24 15:53:00,53.5,29.2,30.10,WSW,246,5.0,11.0,39,0.00,,OVC015,0.00,703.00,VWS V14.00,2013-04-24 20:53:00,
2013-04-24 15:54:00,53.5,29.2,30.10,WSW,241,3.0,6.0,39,0.00,,OVC015,0.00,703.00,VWS V14.00,2013-04-24 20:54:00,
2013-04-24 15:55:00,53.5,29.2,30.10,SSW,213,6.0,11.0,39,0.00,,OVC015,0.00,703.00,VWS V14.00,2013-04-24 20:55:00,
2013-04-24 15:57:00,53.7,28.7,30.09,SW,219,7.0,11.0,38,0.00,,OVC015,0.00,694.00,VWS V14.00,2013-04-24 20:57:00,
2013-04-24 15:59:00,53.8,29.4,30.09,SSW,205,8.0,13.0,39,0.00,,OVC015,0.00,689.00,VWS V14.00,2013-04-24 20:59:00,
2013-04-24 16:00:00,53.8,28.2,30.09,SW,232,9.0,14.0,37,0.00,,OVC015,0.00,686.00,VWS V14.00,2013-04-24 21:00:00,
2013-04-24 16:02:00,53.7,29.4,30.09,West,274,5.0,14.0,39,0.00,,OVC015,0.00,682.00,VWS V14.00,2013-04-24 21:02:00,
2013-04-24 16:04:00,53.7,30.0,30.09,WSW,246,7.0,12.0,40,0.00,,OVC015,0.00,675.00,VWS V14.00,2013-04-24 21:04:00,
2013-04-24 16:05:00,53.7,30.0,30.09,SSW,211,6.0,12.0,40,0.00,,OVC015,0.00,673.00,VWS V14.00,2013-04-24 21:05:00,
2013-04-24 16:08:00,53.6,28.6,30.09,WSW,244,8.0,14.0,38,0.00,,OVC015,0.00,661.00,VWS V14.00,2013-04-24 21:08:00,
2013-04-24 16:09:00,53.5,27.9,30.09,WSW,251,10.0,10.0,37,0.00,,OVC015,0.00,659.00,VWS V14.00,2013-04-24 21:09:00,
2013-04-24 16:10:00,53.5,28.5,30.09,WNW,283,8.0,15.0,38,0.00,,OVC015,0.00,652.00,VWS V14.00,2013-04-24 21:10:00,
2013-04-24 16:13:00,53.5,27.9,30.09,WNW,285,3.0,15.0,37,0.00,,OVC015,0.00,645.00,VWS V14.00,2013-04-24 21:13:00,
2013-04-24 16:14:00,53.6,29.9,30.09,WNW,283,5.0,8.0,40,0.00,,OVC015,0.00,642.00,VWS V14.00,2013-04-24 21:14:00,
2013-04-24 16:15:00,53.7,30.0,30.09,WSW,242,7.0,8.0,40,0.00,,OVC015,0.00,642.00,VWS V14.00,2013-04-24 21:15:00,
2013-04-24 16:18:00,53.7,29.4,30.09,WSW,253,7.0,12.0,39,0.00,,OVC015,0.00,631.00,VWS V14.00,2013-04-24 21:18:00,
2013-04-24 16:20:00,53.8,28.2,30.09,WNW,287,4.0,8.0,37,0.00,,OVC015,0.00,626.00,VWS V14.00,2013-04-24 21:20:00,
2013-04-24 16:21:00,53.8,29.4,30.09,West,275,7.0,8.0,39,0.00,,OVC015,0.00,615.00,VWS V14.00,2013-04-24 21:21:00,
2013-04-24 16:23:00,53.7,28.1,30.08,WNW,291,5.0,13.0,37,0.00,,OVC015,0.00,617.00,VWS V14.00,2013-04-24 21:23:00,
2013-04-24 16:25:00,53.7,28.1,30.09,West,259,5.0,10.0,37,0.00,,OVC015,0.00,608.00,VWS V14.00,2013-04-24 21:25:00,
2013-04-24 16:26:00,53.7,28.1,30.09,WNW,295,7.0,10.0,37,0.00,,OVC015,0.00,605.00,VWS V14.00,2013-04-24 21:26:00,
2013-04-24 16:28:00,53.9,30.8,30.08,WSW,243,10.0,11.0,41,0.00,,OVC015,0.00,598.00,VWS V14.00,2013-04-24 21:28:00,
2013-04-24 16:30:00,54.0,30.9,30.08,SW,220,8.0,14.0,41,0.00,,OVC015,0.00,594.00,VWS V14.00,2013-04-24 21:30:00,
2013-04-24 16:31:00,54.0,29.6,30.08,WSW,257,6.0,14.0,39,0.00,,OVC015,0.00,594.00,VWS V14.00,2013-04-24 21:31:00,
2013-04-24 16:34:00,53.8,29.4,30.08,SW,223,13.0,13.0,39,0.00,,OVC015,0.00,587.00,VWS V14.00,2013-04-24 21:34:00,
2013-04-24 16:35:00,53.8,30.7,30.08,SW,228,6.0,13.0,41,0.00,,OVC015,0.00,584.00,VWS V14.00,2013-04-24 21:35:00,
2013-04-24 16:36:00,53.8,31.3,30.08,SW,219,13.0,15.0,42,0.00,,OVC015,0.00,580.00,VWS V14.00,2013-04-24 21:36:00,
2013-04-24 16:39:00,53.8,31.9,30.08,SW,215,7.0,13.0,43,0.00,,OVC015,0.00,570.00,VWS V14.00,2013-04-24 21:39:00,
2013-04-24 16:40:00,53.8,30.7,30.08,SW,221,8.0,13.0,41,0.00,,OVC015,0.00,561.00,VWS V14.00,2013-04-24 21:40:00,
2013-04-24 16:41:00,53.8,30.1,30.08,SW,215,8.0,13.0,40,0.00,,OVC015,0.00,554.00,VWS V14.00,2013-04-24 21:41:00,
2013-04-24 16:44:00,54.0,32.0,30.08,West,280,10.0,10.0,43,0.00,,OVC015,0.00,543.00,VWS V14.00,2013-04-24 21:44:00,
2013-04-24 16:45:00,54.1,30.9,30.08,SW,231,9.0,17.0,41,0.00,,OVC015,0.00,541.00,VWS V14.00,2013-04-24 21:45:00,
2013-04-24 16:46:00,54.2,29.8,30.08,West,260,5.0,17.0,39,0.00,,OVC015,0.00,547.00,VWS V14.00,2013-04-24 21:46:00,
2013-04-24 16:47:00,54.1,29.1,30.08,WSW,242,5.0,17.0,38,0.00,,OVC015,0.00,547.00,VWS V14.00,2013-04-24 21:47:00,
2013-04-24 16:50:00,54.0,29.0,30.08,WSW,246,8.0,13.0,38,0.00,,OVC015,0.00,540.00,VWS V14.00,2013-04-24 21:50:00,
2013-04-24 16:51:00,54.0,28.3,30.08,SW,227,13.0,17.0,37,0.00,,OVC015,0.00,536.00,VWS V14.00,2013-04-24 21:51:00,
2013-04-24 16:52:00,54.0,29.0,30.08,WNW,286,10.0,17.0,38,0.00,,OVC015,0.00,531.00,VWS V14.00,2013-04-24 21:52:00,
2013-04-24 16:55:00,54.0,30.2,30.08,West,259,10.0,10.0,40,0.00,,OVC015,0.00,519.00,VWS V14.00,2013-04-24 21:55:00,
2013-04-24 16:56:00,54.1,29.1,30.08,SW,236,7.0,12.0,38,0.00,,OVC015,0.00,520.00,VWS V14.00,2013-04-24 21:56:00,
2013-04-24 16:58:00,53.9,29.5,30.08,WSW,254,3.0,14.0,39,0.00,,OVC015,0.00,512.00,VWS V14.00,2013-04-24 21:58:00,
2013-04-24 17:00:00,53.9,30.1,30.08,WSW,249,6.0,11.0,40,0.00,,OVC015,0.00,503.00,VWS V14.00,2013-04-24 22:00:00,
2013-04-24 17:01:00,54.0,30.9,30.08,WSW,238,6.0,13.0,41,0.00,,OVC015,0.00,497.00,VWS V14.00,2013-04-24 22:01:00,
2013-04-24 17:02:00,54.0,30.9,30.08,West,279,4.0,13.0,41,0.00,,OVC015,0.00,497.00,VWS V14.00,2013-04-24 22:02:00,
2013-04-24 17:03:00,54.1,30.9,30.08,NW,304,6.0,13.0,41,0.00,,OVC015,0.00,489.00,VWS V14.00,2013-04-24 22:03:00,
2013-04-24 17:05:00,54.2,31.0,30.08,SW,219,5.0,12.0,41,0.00,,OVC015,0.00,483.00,VWS V14.00,2013-04-24 22:05:00,
2013-04-24 17:06:00,54.2,32.2,30.07,SW,235,10.0,14.0,43,0.00,,OVC015,0.00,478.00,VWS V14.00,2013-04-24 22:06:00,
2013-04-24 17:07:00,54.3,32.3,30.07,WSW,256,7.0,14.0,43,0.00,,OVC015,0.00,478.00,VWS V14.00,2013-04-24 22:07:00,
2013-04-24 17:08:00,54.2,31.0,30.07,WSW,245,1.0,14.0,41,0.00,,OVC015,0.00,475.00,VWS V14.00,2013-04-24 22:08:00,
2013-04-24 17:10:00,54.3,31.7,30.07,SW,223,9.0,14.0,42,0.00,,OVC015,0.00,475.00,VWS V14.00,2013-04-24 22:10:00,
2013-04-24 17:11:00,54.4,30.6,30.07,SW,232,9.0,12.0,40,0.00,,OVC015,0.00,461.00,VWS V14.00,2013-04-24 22:11:00,
2013-04-24 17:12:00,54.4,31.2,30.07,WSW,246,10.0,13.0,41,0.00,,OVC015,0.00,462.00,VWS V14.00,2013-04-24 22:12:00,
2013-04-24 17:13:00,54.3,29.2,30.07,SW,231,6.0,13.0,38,0.00,,OVC015,0.00,461.00,VWS V14.00,2013-04-24 22:13:00,
2013-04-24 17:15:00,54.3,29.2,30.07,SW,219,6.0,13.0,38,0.00,,OVC015,0.00,461.00,VWS V14.00,2013-04-24 22:15:00,
2013-04-24 17:16:00,54.3,30.5,30.07,WSW,242,9.0,12.0,40,0.00,,OVC015,0.00,450.00,VWS V14.00,2013-04-24 22:16:00,
2013-04-24 17:17:00,54.3,30.5,30.07,West,275,4.0,12.0,40,0.00,,OVC015,0.00,450.00,VWS V14.00,2013-04-24 22:17:00,
2013-04-24 17:18:00,54.3,31.1,30.07,SW,225,4.0,12.0,41,0.00,,OVC015,0.00,439.00,VWS V14.00,2013-04-24 22:18:00,
2013-04-24 17:20:00,54.3,31.1,30.07,WSW,242,3.0,12.0,41,0.00,,OVC015,0.00,439.00,VWS V14.00,2013-04-24 22:20:00,
2013-04-24 17:21:00,54.4,30.6,30.07,WSW,246,8.0,9.0,40,0.00,,OVC015,0.00,434.00,VWS V14.00,2013-04-24 22:21:00,
2013-04-24 17:22:00,54.3,29.9,30.07,SW,232,9.0,9.0,39,0.00,,OVC015,0.00,311.00,VWS V14.00,2013-04-24 22:22:00,
2013-04-24 17:23:00,54.2,30.4,30.07,SSW,202,7.0,16.0,40,0.00,,OVC015,0.00,452.00,VWS V14.00,2013-04-24 22:23:00,
2013-04-24 17:25:00,54.2,30.4,30.07,WSW,254,9.0,16.0,40,0.00,,OVC015,0.00,452.00,VWS V14.00,2013-04-24 22:25:00,
2013-04-24 17:26:00,54.2,31.0,30.07,SW,229,8.0,18.0,41,0.00,,OVC015,0.00,448.00,VWS V14.00,2013-04-24 22:26:00,
2013-04-24 17:27:00,54.2,31.0,30.07,SW,217,7.0,18.0,41,0.00,,OVC015,0.00,439.00,VWS V14.00,2013-04-24 22:27:00,
2013-04-24 17:28:00,54.2,31.0,30.06,SSW,203,11.0,18.0,41,0.00,,OVC015,0.00,431.00,VWS V14.00,2013-04-24 22:28:00,
2013-04-24 17:29:00,54.2,31.0,30.06,SW,217,8.0,18.0,41,0.00,,OVC015,0.00,418.00,VWS V14.00,2013-04-24 22:29:00,
2013-04-24 17:30:00,54.2,31.0,30.06,SW,217,8.0,18.0,41,0.00,,OVC015,0.00,418.00,VWS V14.00,2013-04-24 22:30:00,
2013-04-24 17:31:00,54.4,31.2,30.06,WSW,240,6.0,15.0,41,0.00,,OVC015,0.00,411.00,VWS V14.00,2013-04-24 22:31:00,
2013-04-24 17:32:00,54.4,30.0,30.06,SW,232,8.0,15.0,39,0.00,,OVC015,0.00,403.00,VWS V14.00,2013-04-24 22:32:00,
2013-04-24 17:33:00,54.3,30.5,30.06,SW,234,6.0,15.0,40,0.00,,OVC015,0.00,403.00,VWS V14.00,2013-04-24 22:33:00,
2013-04-24 17:34:00,54.3,31.1,30.06,WSW,258,5.0,6.0,41,0.00,,OVC015,0.00,394.00,VWS V14.00,2013-04-24 22:34:00,
2013-04-24 17:35:00,54.3,31.1,30.06,WNW,298,3.0,15.0,41,0.00,,OVC015,0.00,397.00,VWS V14.00,2013-04-24 22:35:00,
2013-04-24 17:36:00,54.5,31.3,30.06,SW,226,9.0,12.0,41,0.00,,OVC015,0.00,381.00,VWS V14.00,2013-04-24 22:36:00,
2013-04-24 17:37:00,54.6,31.4,30.06,WSW,250,4.0,12.0,41,0.00,,OVC015,0.00,376.00,VWS V14.00,2013-04-24 22:37:00,
2013-04-24 17:38:00,54.6,30.8,30.06,WSW,258,4.0,12.0,40,0.00,,OVC015,0.00,378.00,VWS V14.00,2013-04-24 22:38:00,
2013-04-24 17:39:00,54.6,30.8,30.06,WSW,246,4.0,12.0,40,0.00,,OVC015,0.00,378.00,VWS V14.00,2013-04-24 22:39:00,
2013-04-24 17:40:00,54.6,30.8,30.06,WSW,246,4.0,12.0,40,0.00,,OVC015,0.00,378.00,VWS V14.00,2013-04-24 22:40:00,
2013-04-24 17:41:00,54.5,30.1,30.06,SW,214,8.0,13.0,39,0.00,,OVC015,0.00,359.00,VWS V14.00,2013-04-24 22:41:00,
2013-04-24 17:42:00,54.5,30.7,30.06,WSW,246,8.0,13.0,40,0.00,,OVC015,0.00,359.00,VWS V14.00,2013-04-24 22:42:00,
2013-04-24 17:43:00,54.5,30.7,30.06,NW,304,7.0,13.0,40,0.00,,OVC015,0.00,359.00,VWS V14.00,2013-04-24 22:43:00,
2013-04-24 17:44:00,54.5,30.1,30.06,West,275,10.0,13.0,39,0.00,,OVC015,0.00,359.00,VWS V14.00,2013-04-24 22:44:00,
2013-04-24 17:45:00,54.5,30.1,30.06,West,275,10.0,13.0,39,0.00,,OVC015,0.00,359.00,VWS V14.00,2013-04-24 22:45:00,
2013-04-24 17:47:00,54.4,30.6,30.06,WSW,242,6.0,10.0,40,0.00,,OVC015,0.00,334.00,VWS V14.00,2013-04-24 22:47:00,
2013-04-24 17:49:00,54.4,30.0,30.05,SW,233,8.0,13.0,39,0.00,,OVC015,0.00,276.00,VWS V14.00,2013-04-24 22:49:00,
2013-04-24 17:50:00,54.4,30.0,30.05,SW,233,8.0,13.0,39,0.00,,OVC015,0.00,276.00,VWS V14.00,2013-04-24 22:50:00,
2013-04-24 17:52:00,54.2,31.0,30.05,SW,234,10.0,13.0,41,0.00,,OVC015,0.00,244.00,VWS V14.00,2013-04-24 22:52:00,
2013-04-24 17:53:00,54.2,30.4,30.05,West,272,4.0,13.0,40,0.00,,OVC015,0.00,246.00,VWS V14.00,2013-04-24 22:53:00,
2013-04-24 17:54:00,54.2,30.4,30.05,WSW,238,10.0,10.0,40,0.00,,OVC015,0.00,236.00,VWS V14.00,2013-04-24 22:54:00,
2013-04-24 17:55:00,54.2,30.4,30.05,West,265,5.0,13.0,40,0.00,,OVC015,0.00,236.00,VWS V14.00,2013-04-24 22:55:00,
2013-04-24 17:57:00,54.2,30.4,30.05,West,262,5.0,12.0,40,0.00,,OVC015,0.00,209.00,VWS V14.00,2013-04-24 22:57:00,
2013-04-24 17:58:00,54.3,30.5,30.05,SW,232,9.0,12.0,40,0.00,,OVC015,0.00,209.00,VWS V14.00,2013-04-24 22:58:00,
2013-04-24 17:59:00,54.3,30.5,30.05,SW,223,5.0,8.0,40,0.00,,OVC015,0.00,188.00,VWS V14.00,2013-04-24 22:59:00,
2013-04-24 18:00:00,54.3,30.5,30.05,West,281,2.0,12.0,40,0.00,,OVC015,0.00,188.00,VWS V14.00,2013-04-24 23:00:00,
2013-04-24 18:02:00,54.3,31.1,30.05,WSW,240,11.0,14.0,41,0.00,,OVC015,0.00,225.00,VWS V14.00,2013-04-24 23:02:00,
2013-04-24 18:04:00,54.4,30.6,30.05,WNW,290,4.0,4.0,40,0.00,,OVC015,0.00,171.00,VWS V14.00,2013-04-24 23:04:00,
2013-04-24 18:05:00,54.4,30.6,30.05,WNW,290,4.0,14.0,40,0.00,,OVC015,0.00,171.00,VWS V14.00,2013-04-24 23:05:00,
2013-04-24 18:09:00,54.4,30.0,30.05,SW,220,8.0,9.0,39,0.00,,OVC015,0.00,209.00,VWS V14.00,2013-04-24 23:09:00,
2013-04-24 18:10:00,54.4,31.2,30.05,South,190,14.0,14.0,41,0.00,,OVC015,0.00,128.00,VWS V14.00,2013-04-24 23:10:00,
2013-04-24 18:14:00,54.1,29.7,30.05,SW,228,8.0,8.0,39,0.00,,OVC015,0.00,128.00,VWS V14.00,2013-04-24 23:14:00,
2013-04-24 18:15:00,54.1,30.3,30.05,SW,229,7.0,11.0,40,0.00,,OVC015,0.00,142.00,VWS V14.00,2013-04-24 23:15:00,
2013-04-24 18:19:00,54.3,30.5,30.05,WSW,248,6.0,8.0,40,0.00,,OVC015,0.00,98.00,VWS V14.00,2013-04-24 23:19:00,
2013-04-24 18:20:00,54.3,29.9,30.05,WSW,242,6.0,8.0,39,0.00,,OVC015,0.00,100.00,VWS V14.00,2013-04-24 23:20:00,
2013-04-24 18:24:00,54.1,30.9,30.05,SSW,212,10.0,13.0,41,0.00,,OVC015,0.00,98.00,VWS V14.00,2013-04-24 23:24:00,
2013-04-24 18:25:00,54.1,30.3,30.05,WSW,238,13.0,13.0,40,0.00,,OVC015,0.00,95.00,VWS V14.00,2013-04-24 23:25:00,
2013-04-24 18:29:00,53.8,30.1,30.05,SW,232,9.0,13.0,40,0.00,,OVC015,0.00,148.00,VWS V14.00,2013-04-24 23:29:00,
2013-04-24 18:30:00,53.8,29.4,30.05,WSW,239,6.0,13.0,39,0.00,,OVC015,0.00,148.00,VWS V14.00,2013-04-24 23:30:00,
2013-04-24 18:35:00,53.7,29.4,30.04,SSW,195,4.0,13.0,39,0.00,,OVC015,0.00,107.00,VWS V14.00,2013-04-24 23:35:00,
2013-04-24 18:36:00,53.7,29.4,30.04,WSW,241,5.0,13.0,39,0.00,,OVC015,0.00,90.00,VWS V14.00,2013-04-24 23:36:00,
2013-04-24 18:40:00,53.7,30.6,30.04,SW,229,13.0,17.0,41,0.00,,OVC015,0.00,69.00,VWS V14.00,2013-04-24 23:40:00,
2013-04-24 18:41:00,53.7,30.0,30.04,SSW,209,12.0,17.0,40,0.00,,OVC015,0.00,67.00,VWS V14.00,2013-04-24 23:41:00,
2013-04-24 18:45:00,53.6,29.9,30.04,WSW,252,9.0,17.0,40,0.00,,OVC015,0.00,53.00,VWS V14.00,2013-04-24 23:45:00,
2013-04-24 18:46:00,53.6,29.3,30.04,WSW,250,5.0,11.0,39,0.00,,OVC015,0.00,58.00,VWS V14.00,2013-04-24 23:46:00,
2013-04-24 18:47:00,53.6,29.3,30.04,WSW,246,5.0,11.0,39,0.00,,OVC015,0.00,62.00,VWS V14.00,2013-04-24 23:47:00,
2013-04-24 18:50:00,53.6,30.5,30.04,SSW,213,3.0,11.0,41,0.00,,OVC015,0.00,69.00,VWS V14.00,2013-04-24 23:50:00,
2013-04-24 18:51:00,53.6,28.6,30.03,WSW,238,5.0,15.0,38,0.00,,OVC015,0.00,83.00,VWS V14.00,2013-04-24 23:51:00,
2013-04-24 18:52:00,53.6,28.6,30.03,WSW,245,4.0,15.0,38,0.00,,OVC015,0.00,84.00,VWS V14.00,2013-04-24 23:52:00,
2013-04-24 18:55:00,53.7,29.4,30.03,SSW,212,5.0,15.0,39,0.00,,OVC015,0.00,88.00,VWS V14.00,2013-04-24 23:55:00,
2013-04-24 18:56:00,53.7,29.4,30.03,WSW,247,7.0,10.0,39,0.00,,OVC015,0.00,93.00,VWS V14.00,2013-04-24 23:56:00,
2013-04-24 18:57:00,53.7,28.7,30.03,WSW,248,5.0,13.0,38,0.00,,OVC015,0.00,86.00,VWS V14.00,2013-04-24 23:57:00,
2013-04-24 18:58:00,53.7,28.7,30.03,SW,225,8.0,13.0,38,0.00,,OVC015,0.00,79.00,VWS V14.00,2013-04-24 23:58:00,
2013-04-24 19:00:00,53.8,28.8,30.03,WSW,244,4.0,13.0,38,0.00,,OVC015,0.00,74.00,VWS V14.00,2013-04-25 00:00:00,
2013-04-24 19:01:00,53.8,29.4,30.03,SW,219,11.0,14.0,39,0.00,,OVC015,0.00,60.00,VWS V14.00,2013-04-25 00:01:00,
2013-04-24 19:02:00,53.7,29.4,30.03,West,268,5.0,14.0,39,0.00,,OVC015,0.00,56.00,VWS V14.00,2013-04-25 00:02:00,
2013-04-24 19:03:00,53.7,28.7,30.03,WSW,250,4.0,14.0,38,0.00,,OVC015,0.00,54.00,VWS V14.00,2013-04-25 00:03:00,
2013-04-24 19:05:00,53.6,28.6,30.03,SW,228,5.0,14.0,38,0.00,,OVC015,0.00,53.00,VWS V14.00,2013-04-25 00:05:00,
2013-04-24 19:07:00,53.5,29.2,30.03,WSW,255,7.0,11.0,39,0.00,,OVC015,0.00,53.00,VWS V14.00,2013-04-25 00:07:00,
2013-04-24 19:08:00,53.4,28.5,30.03,SW,223,5.0,11.0,38,0.00,,OVC015,0.00,49.00,VWS V14.00,2013-04-25 00:08:00,
2013-04-24 19:10:00,53.4,28.5,30.03,WSW,252,4.0,11.0,38,0.00,,OVC015,0.00,46.00,VWS V14.00,2013-04-25 00:10:00,
2013-04-24 19:12:00,53.3,29.0,30.03,SW,227,9.0,13.0,39,0.00,,OVC015,0.00,37.00,VWS V14.00,2013-04-25 00:12:00,
2013-04-24 19:13:00,53.3,29.0,30.03,SW,232,5.0,13.0,39,0.00,,OVC015,0.00,37.00,VWS V14.00,2013-04-25 00:13:00,
2013-04-24 19:14:00,53.2,29.5,30.02,SW,214,8.0,9.0,40,0.00,,OVC015,0.00,35.00,VWS V14.00,2013-04-25 00:14:00,
2013-04-24 19:15:00,53.2,29.5,30.03,SSW,211,9.0,13.0,40,0.00,,OVC015,0.00,35.00,VWS V14.00,2013-04-25 00:15:00,
2013-04-24 19:17:00,53.2,28.9,30.03,SW,235,3.0,15.0,39,0.00,,OVC015,0.00,25.00,VWS V14.00,2013-04-25 00:17:00,
2013-04-24 19:18:00,53.3,29.6,30.03,SW,232,6.0,15.0,40,0.00,,OVC015,0.00,21.00,VWS V14.00,2013-04-25 00:18:00,
2013-04-24 19:19:00,53.2,29.5,30.03,WSW,251,3.0,4.0,40,0.00,,OVC015,0.00,19.00,VWS V14.00,2013-04-25 00:19:00,
2013-04-24 19:20:00,53.2,29.5,30.03,WSW,250,3.0,15.0,40,0.00,,OVC015,0.00,21.00,VWS V14.00,2013-04-25 00:20:00,
2013-04-24 19:22:00,53.3,29.0,30.03,West,277,5.0,7.0,39,0.00,,OVC015,0.00,11.00,VWS V14.00,2013-04-25 00:22:00,
2013-04-24 19:23:00,53.3,29.0,30.03,WSW,240,7.0,7.0,39,0.00,,OVC015,0.00,11.00,VWS V14.00,2013-04-25 00:23:00,
2013-04-24 19:24:00,53.3,29.0,30.03,WSW,258,5.0,5.0,39,0.00,,OVC015,0.00,7.00,VWS V14.00,2013-04-25 00:24:00,
2013-04-24 19:25:00,53.3,29.0,30.03,WSW,257,4.0,9.0,39,0.00,,OVC015,0.00,9.00,VWS V14.00,2013-04-25 00:25:00,
2013-04-24 19:28:00,53.5,28.5,30.04,West,279,6.0,11.0,38,0.00,,OVC015,0.00,5.00,VWS V14.00,2013-04-25 00:28:00,
2013-04-24 19:29:00,53.5,28.5,30.04,West,265,4.0,11.0,38,0.00,,OVC015,0.00,0.00,VWS V14.00,2013-04-25 00:29:00,
2013-04-24 19:30:00,53.5,28.5,30.04,West,265,4.0,11.0,38,0.00,,OVC015,0.00,0.00,VWS V14.00,2013-04-25 00:30:00,
2013-04-24 19:33:00,53.5,31.6,30.06,NW,312,13.0,20.0,43,0.00,,OVC015,0.00,0.00,VWS V14.00,2013-04-25 00:33:00,
2013-04-24 19:34:00,53.4,31.5,30.06,NNW,331,10.0,20.0,43,0.00,,OVC015,0.00,0.00,VWS V14.00,2013-04-25 00:34:00,
2013-04-24 19:35:00,53.4,31.5,30.06,NNW,331,10.0,20.0,43,0.00,,OVC015,0.00,0.00,VWS V14.00,2013-04-25 00:35:00,
2013-04-24 19:38:00,51.9,35.8,30.07,NW,316,8.0,18.0,54,0.00,,OVC015,0.00,5.00,VWS V14.00,2013-04-25 00:38:00,
2013-04-24 19:39:00,51.6,36.4,30.07,West,274,6.0,6.0,56,0.00,,OVC015,0.00,5.00,VWS V14.00,2013-04-25 00:39:00,
2013-04-24 19:40:00,51.3,36.6,30.07,West,279,11.0,12.0,57,0.00,,OVC015,0.00,0.00,VWS V14.00,2013-04-25 00:40:00,
2013-04-24 19:43:00,50.4,36.6,30.07,WNW,294,6.0,16.0,59,0.00,,OVC015,0.00,0.00,VWS V14.00,2013-04-25 00:43:00,
2013-04-24 19:44:00,50.3,37.0,30.07,WNW,295,5.0,9.0,60,0.00,,OVC015,0.00,0.00,VWS V14.00,2013-04-25 00:44:00,
2013-04-24 19:45:00,50.2,36.9,30.07,NNW,340,8.0,11.0,60,0.00,,OVC015,0.00,0.00,VWS V14.00,2013-04-25 00:45:00,
2013-04-24 19:46:00,49.9,36.6,30.07,NNW,329,6.0,11.0,60,0.00,,OVC015,0.00,0.00,VWS V14.00,2013-04-25 00:46:00,
2013-04-24 19:49:00,49.6,36.7,30.07,WNW,295,10.0,11.0,61,0.00,,OVC015,0.00,0.00,VWS V14.00,2013-04-25 00:49:00,
2013-04-24 19:50:00,49.5,36.6,30.07,WNW,303,4.0,10.0,61,0.00,,OVC015,0.00,0.00,VWS V14.00,2013-04-25 00:50:00,
2013-04-24 19:51:00,49.4,36.9,30.07,North,349,4.0,10.0,62,0.00,,OVC015,0.00,0.00,VWS V14.00,2013-04-25 00:51:00,
2013-04-24 19:54:00,49.2,37.2,30.07,NW,306,3.0,4.0,63,0.00,,OVC015,0.00,0.00,VWS V14.00,2013-04-25 00:54:00,
2013-04-24 19:55:00,49.2,37.2,30.07,NW,312,3.0,6.0,63,0.00,,OVC015,0.00,0.00,VWS V14.00,2013-04-25 00:55:00,
2013-04-24 19:56:00,49.2,36.8,30.07,West,269,4.0,9.0,62,0.00,,OVC015,0.00,0.00,VWS V14.00,2013-04-25 00:56:00,
2013-04-24 19:59:00,49.1,36.2,30.07,NW,304,7.0,9.0,61,0.00,,OVC015,0.00,0.00,VWS V14.00,2013-04-25 00:59:00,
2013-04-24 20:00:00,49.1,36.2,30.07,NW,304,3.0,9.0,61,0.00,,OVC015,0.00,0.00,VWS V14.00,2013-04-25 01:00:00,
2013-04-24 20:01:00,49.1,36.2,30.07,NW,317,5.0,10.0,61,0.00,,OVC015,0.00,0.00,VWS V14.00,2013-04-25 01:01:00,
2013-04-24 20:05:00,49.2,35.9,30.07,WNW,298,7.0,12.0,60,0.00,,OVC015,0.00,0.00,VWS V14.00,2013-04-25 01:05:00,
2013-04-24 20:06:00,49.2,35.9,30.07,WNW,284,10.0,13.0,60,0.00,,OVC015,0.00,0.00,VWS V14.00,2013-04-25 01:06:00,
2013-04-24 20:07:00,49.3,36.0,30.07,WNW,302,9.0,15.0,60,0.00,,OVC015,0.00,0.00,VWS V14.00,2013-04-25 01:07:00,
2013-04-24 20:10:00,49.3,36.0,30.08,NW,317,8.0,12.0,60,0.00,,OVC015,0.00,0.00,VWS V14.00,2013-04-25 01:10:00,
2013-04-24 20:11:00,49.3,36.4,30.08,WNW,295,6.0,12.0,61,0.00,,OVC015,0.00,0.00,VWS V14.00,2013-04-25 01:11:00,
2013-04-24 20:13:00,49.2,36.8,30.08,NW,310,7.0,14.0,62,0.00,,OVC015,0.00,0.00,VWS V14.00,2013-04-25 01:13:00,
2013-04-24 20:15:00,49.1,37.1,30.08,NW,313,5.0,11.0,63,0.00,,OVC015,0.00,0.00,VWS V14.00,2013-04-25 01:15:00,
2013-04-24 20:16:00,49.1,37.1,30.08,WNW,297,3.0,11.0,63,0.00,,OVC015,0.00,0.00,VWS V14.00,2013-04-25 01:16:00,
2013-04-24 20:19:00,48.9,37.3,30.07,WNW,292,5.0,13.0,64,0.00,,OVC015,0.00,0.00,VWS V14.00,2013-04-25 01:19:00,
2013-04-24 20:20:00,48.8,37.2,30.07,WNW,303,8.0,12.0,64,0.00,,OVC015,0.00,0.00,VWS V14.00,2013-04-25 01:20:00,
2013-04-24 20:21:00,48.8,36.8,30.07,NW,306,7.0,12.0,63,0.00,,OVC015,0.00,0.00,VWS V14.00,2013-04-25 01:21:00,
2013-04-24 20:22:00,48.8,37.2,30.07,WNW,284,12.0,12.0,64,0.00,,OVC015,0.00,0.00,VWS V14.00,2013-04-25 01:22:00,
2013-04-24 20:24:00,48.6,37.0,30.07,NW,313,6.0,9.0,64,0.00,,OVC015,0.00,0.00,VWS V14.00,2013-04-25 01:24:00,
2013-04-24 20:25:00,48.5,37.3,30.07,WNW,292,6.0,9.0,65,0.00,,OVC015,0.00,0.00,VWS V14.00,2013-04-25 01:25:00,
2013-04-24 20:26:00,48.5,37.3,30.07,WNW,297,7.0,9.0,65,0.00,,OVC015,0.00,0.00,VWS V14.00,2013-04-25 01:26:00,
2013-04-24 20:27:00,48.5,37.3,30.08,West,275,6.0,9.0,65,0.00,,OVC015,0.00,0.00,VWS V14.00,2013-04-25 01:27:00,
2013-04-24 20:29:00,48.4,37.2,30.07,West,275,4.0,6.0,65,0.00,,OVC015,0.00,0.00,VWS V14.00,2013-04-25 01:29:00,
2013-04-24 20:30:00,48.4,37.2,30.08,WNW,289,6.0,10.0,65,0.00,,OVC015,0.00,0.00,VWS V14.00,2013-04-25 01:30:00,
2013-04-24 20:31:00,48.3,37.1,30.07,West,279,2.0,6.0,65,0.00,,OVC015,0.00,0.00,VWS V14.00,2013-04-25 01:31:00,
2013-04-24 20:32:00,48.3,37.1,30.07,West,279,2.0,6.0,65,0.00,,OVC015,0.00,0.00,VWS V14.00,2013-04-25 01:32:00,
2013-04-24 20:35:00,48.2,37.0,30.07,WNW,292,1.0,5.0,65,0.00,,OVC015,0.00,0.00,VWS V14.00,2013-04-25 01:35:00,
2013-04-24 20:36:00,48.2,37.0,30.07,WNW,291,1.0,5.0,65,0.00,,OVC015,0.00,0.00,VWS V14.00,2013-04-25 01:36:00,
2013-04-24 20:37:00,48.1,36.9,30.07,WNW,291,3.0,5.0,65,0.00,,OVC015,0.00,0.00,VWS V14.00,2013-04-25 01:37:00,
2013-04-24 20:40:00,48.1,36.9,30.07,NW,313,4.0,5.0,65,0.00,,OVC015,0.00,0.00,VWS V14.00,2013-04-25 01:40:00,
2013-04-24 20:41:00,48.1,37.3,30.07,West,269,2.0,6.0,66,0.00,,OVC015,0.00,0.00,VWS V14.00,2013-04-25 01:41:00,
2013-04-24 20:42:00,48.1,36.9,30.07,WNW,294,4.0,6.0,65,0.00,,OVC015,0.00,0.00,VWS V14.00,2013-04-25 01:42:00,
2013-04-24 20:45:00,48.1,36.9,30.07,West,268,5.0,7.0,65,0.00,,OVC015,0.00,0.00,VWS V14.00,2013-04-25 01:45:00,
2013-04-24 20:46:00,48.0,36.8,30.07,WNW,294,1.0,7.0,65,0.00,,OVC015,0.00,0.00,VWS V14.00,2013-04-25 01:46:00,
2013-04-24 20:47:00,48.1,36.9,30.07,WNW,294,3.0,7.0,65,0.00,,OVC015,0.00,0.00,VWS V14.00,2013-04-25 01:47:00,
2013-04-24 20:50:00,48.1,37.3,30.07,WNW,290,2.0,7.0,66,0.00,,OVC015,0.00,0.00,VWS V14.00,2013-04-25 01:50:00,
2013-04-24 20:51:00,48.0,37.2,30.08,West,274,2.0,7.0,66,0.00,,OVC015,0.00,0.00,VWS V14.00,2013-04-25 01:51:00,
2013-04-24 20:52:00,48.0,37.2,30.08,NNW,332,7.0,9.0,66,0.00,,OVC015,0.00,0.00,VWS V14.00,2013-04-25 01:52:00,
2013-04-24 20:55:00,48.0,37.2,30.08,NW,321,11.0,11.0,66,0.00,,OVC015,0.00,0.00,VWS V14.00,2013-04-25 01:55:00,
2013-04-24 20:56:00,48.0,37.2,30.08,WNW,282,8.0,11.0,66,0.00,,OVC015,0.00,0.00,VWS V14.00,2013-04-25 01:56:00,
2013-04-24 20:57:00,47.9,37.1,30.08,West,273,12.0,12.0,66,0.00,,OVC015,0.00,0.00,VWS V14.00,2013-04-25 01:57:00,
2013-04-24 20:58:00,47.9,37.1,30.08,WNW,298,8.0,12.0,66,0.00,,OVC015,0.00,0.00,VWS V14.00,2013-04-25 01:58:00,
2013-04-24 21:00:00,47.9,37.1,30.08,WNW,299,5.0,12.0,66,0.00,,OVC015,0.00,0.00,VWS V14.00,2013-04-25 02:00:00,
2013-04-24 21:01:00,47.9,37.1,30.08,WNW,301,10.0,11.0,66,0.00,,OVC015,0.00,0.00,VWS V14.00,2013-04-25 02:01:00,
2013-04-24 21:02:00,47.8,37.4,30.09,NW,305,12.0,12.0,67,0.00,,OVC015,0.00,0.00,VWS V14.00,2013-04-25 02:02:00,
2013-04-24 21:03:00,47.8,37.4,30.09,WNW,282,7.0,12.0,67,0.00,,OVC015,0.00,0.00,VWS V14.00,2013-04-25 02:03:00,
2013-04-24 21:05:00,47.8,37.8,30.09,NW,320,9.0,12.0,68,0.00,,OVC015,0.00,0.00,VWS V14.00,2013-04-25 02:05:00,
2013-04-24 21:06:00,47.6,37.6,30.09,NW,306,9.0,12.0,68,0.00,,OVC015,0.00,0.00,VWS V14.00,2013-04-25 02:06:00,
2013-04-24 21:07:00,47.6,37.6,30.09,NW,317,5.0,12.0,68,0.00,,OVC015,0.00,0.00,VWS V14.00,2013-04-25 02:07:00,
2013-04-24 21:08:00,47.5,37.8,30.09,NW,313,10.0,12.0,69,0.00,,OVC015,0.00,0.00,VWS V14.00,2013-04-25 02:08:00,
2013-04-24 21:10:00,47.5,37.8,30.09,WNW,296,5.0,12.0,69,0.00,,OVC015,0.00,0.00,VWS V14.00,2013-04-25 02:10:00,
2013-04-24 21:11:00,47.3,38.0,30.09,WNW,294,4.0,8.0,70,0.00,,OVC015,0.00,0.00,VWS V14.00,2013-04-25 02:11:00,
2013-04-24 21:12:00,47.3,38.0,30.09,WNW,293,2.0,8.0,70,0.00,,OVC015,0.00,0.00,VWS V14.00,2013-04-25 02:12:00,
2013-04-24 21:13:00,47.2,37.9,30.10,WNW,293,3.0,8.0,70,0.00,,OVC015,0.00,0.00,VWS V14.00,2013-04-25 02:13:00,
2013-04-24 21:14:00,47.2,37.9,30.10,WNW,301,7.0,8.0,70,0.00,,OVC015,0.00,0.00,VWS V14.00,2013-04-25 02:14:00,
2013-04-24 21:15:00,47.2,37.9,30.10,NW,315,5.0,8.0,70,0.00,,OVC015,0.00,0.00,VWS V14.00,2013-04-25 02:15:00,
2013-04-24 21:16:00,47.0,38.1,30.10,NW,317,6.0,11.0,71,0.00,,OVC015,0.00,0.00,VWS V14.00,2013-04-25 02:16:00,
2013-04-24 21:17:00,47.0,38.1,30.10,NW,315,7.0,11.0,71,0.00,,OVC015,0.00,0.00,VWS V14.00,2013-04-25 02:17:00,
2013-04-24 21:18:00,47.0,38.5,30.10,NW,316,4.0,11.0,72,0.00,,OVC015,0.00,0.00,VWS V14.00,2013-04-25 02:18:00,
2013-04-24 21:19:00,46.9,38.4,30.10,WNW,302,5.0,6.0,72,0.00,,OVC015,0.00,0.00,VWS V14.00,2013-04-25 02:19:00,
2013-04-24 21:20:00,46.9,38.4,30.10,WNW,301,6.0,11.0,72,0.00,,OVC015,0.00,0.00,VWS V14.00,2013-04-25 02:20:00,
2013-04-24 21:22:00,46.8,38.3,30.10,WNW,302,3.0,8.0,72,0.00,,OVC015,0.00,0.00,VWS V14.00,2013-04-25 02:22:00,
2013-04-24 21:23:00,46.7,38.2,30.10,NNW,328,6.0,11.0,72,0.00,,OVC015,0.00,0.00,VWS V14.00,2013-04-25 02:23:00,
2013-04-24 21:24:00,46.6,38.4,30.10,WNW,298,3.0,9.0,73,0.00,,OVC015,0.00,0.00,VWS V14.00,2013-04-25 02:24:00,
2013-04-24 21:25:00,46.7,38.5,30.10,West,277,9.0,11.0,73,0.00,,OVC015,0.00,0.00,VWS V14.00,2013-04-25 02:25:00,
2013-04-24 21:27:00,46.6,38.4,30.10,NW,317,5.0,9.0,73,0.00,,OVC015,0.00,0.00,VWS V14.00,2013-04-25 02:27:00,
2013-04-24 21:28:00,46.5,38.3,30.10,NW,316,7.0,9.0,73,0.00,,OVC015,0.00,0.00,VWS V14.00,2013-04-25 02:28:00,
2013-04-24 21:29:00,46.4,38.6,30.10,WNW,300,3.0,5.0,74,0.00,,OVC015,0.00,0.00,VWS V14.00,2013-04-25 02:29:00,
2013-04-24 21:30:00,46.5,38.7,30.10,WNW,300,5.0,9.0,74,0.00,,OVC015,0.00,0.00,VWS V14.00,2013-04-25 02:30:00,
2013-04-24 21:32:00,46.4,38.6,30.10,WNW,296,6.0,9.0,74,0.00,,OVC015,0.00,0.00,VWS V14.00,2013-04-25 02:32:00,
2013-04-24 21:33:00,46.3,38.5,30.10,WNW,301,3.0,9.0,74,0.00,,OVC015,0.00,0.00,VWS V14.00,2013-04-25 02:33:00,
2013-04-24 21:35:00,46.2,38.4,30.10,NW,305,4.0,4.0,74,0.00,,OVC015,0.00,0.00,VWS V14.00,2013-04-25 02:35:00,
2013-04-24 21:37:00,46.2,38.4,30.10,NNW,341,3.0,5.0,74,0.00,,OVC015,0.00,0.00,VWS V14.00,2013-04-25 02:37:00,
2013-04-24 21:38:00,46.1,38.6,30.10,NW,319,1.0,5.0,75,0.00,,OVC015,0.00,0.00,VWS V14.00,2013-04-25 02:38:00,
2013-04-24 21:39:00,46.1,38.6,30.10,NW,314,6.0,6.0,75,0.00,,OVC015,0.00,0.00,VWS V14.00,2013-04-25 02:39:00,
2013-04-24 21:40:00,46.1,38.6,30.11,WNW,302,3.0,5.0,75,0.00,,OVC015,0.00,0.00,VWS V14.00,2013-04-25 02:40:00,
2013-04-24 21:42:00,46.0,38.5,30.11,NW,304,1.0,7.0,75,0.00,,OVC015,0.00,0.00,VWS V14.00,2013-04-25 02:42:00,
2013-04-24 21:43:00,46.0,38.5,30.11,NW,304,2.0,7.0,75,0.00,,OVC015,0.00,0.00,VWS V14.00,2013-04-25 02:43:00,
2013-04-24 21:44:00,46.0,38.9,30.11,NW,315,8.0,8.0,76,0.00,,OVC015,0.00,0.00,VWS V14.00,2013-04-25 02:44:00,
2013-04-24 21:45:00,46.0,38.9,30.11,West,279,6.0,8.0,76,0.00,,OVC015,0.00,0.00,VWS V14.00,2013-04-25 02:45:00,
2013-04-24 21:48:00,45.9,38.8,30.11,WNW,295,0.0,8.0,76,0.00,,OVC015,0.00,0.00,VWS V14.00,2013-04-25 02:48:00,
2013-04-24 21:49:00,45.8,38.7,30.11,NW,317,4.0,8.0,76,0.00,,OVC015,0.00,0.00,VWS V14.00,2013-04-25 02:49:00,
2013-04-24 21:50:00,45.8,38.7,30.11,NW,312,3.0,4.0,76,0.00,,OVC015,0.00,0.00,VWS V14.00,2013-04-25 02:50:00,
2013-04-24 21:53:00,45.7,38.9,30.11,WNW,302,1.0,5.0,77,0.00,,OVC015,0.00,0.00,VWS V14.00,2013-04-25 02:53:00,
2013-04-24 21:54:00,45.6,38.8,30.11,WNW,302,0.0,5.0,77,0.00,,OVC015,0.00,0.00,VWS V14.00,2013-04-25 02:54:00,
2013-04-24 21:55:00,45.6,38.8,30.11,West,281,4.0,5.0,77,0.00,,OVC015,0.00,0.00,VWS V14.00,2013-04-25 02:55:00,
2013-04-24 21:58:00,45.6,38.8,30.11,WNW,285,2.0,5.0,77,0.00,,OVC015,0.00,0.00,VWS V14.00,2013-04-25 02:58:00,
2013-04-24 21:59:00,45.5,38.7,30.11,WNW,284,2.0,3.0,77,0.00,,OVC015,0.00,0.00,VWS V14.00,2013-04-25 02:59:00,
2013-04-24 22:00:00,45.5,38.7,30.11,West,277,6.0,6.0,77,0.00,,OVC015,0.00,0.00,VWS V14.00,2013-04-25 03:00:00,
2013-04-24 22:03:00,45.4,38.6,30.12,WNW,288,4.0,6.0,77,0.00,,OVC015,0.00,0.00,VWS V14.00,2013-04-25 03:03:00,
2013-04-24 22:04:00,45.4,38.6,30.12,WNW,288,4.0,4.0,77,0.00,,OVC015,0.00,0.00,VWS V14.00,2013-04-25 03:04:00,
2013-04-24 22:05:00,45.4,38.6,30.12,WNW,288,4.0,6.0,77,0.00,,OVC015,0.00,0.00,VWS V14.00,2013-04-25 03:05:00,
2013-04-24 22:06:00,45.3,38.9,30.12,NW,305,5.0,5.0,78,0.00,,OVC015,0.00,0.00,VWS V14.00,2013-04-25 03:06:00,
2013-04-24 22:09:00,45.1,38.7,30.12,West,273,1.0,1.0,78,0.00,,OVC015,0.00,0.00,VWS V14.00,2013-04-25 03:09:00,
2013-04-24 22:10:00,45.1,38.7,30.12,NW,315,3.0,4.0,78,0.00,,OVC015,0.00,0.00,VWS V14.00,2013-04-25 03:10:00,
2013-04-24 22:11:00,45.1,38.7,30.12,NW,315,1.0,4.0,78,0.00,,OVC015,0.00,0.00,VWS V14.00,2013-04-25 03:11:00,
2013-04-24 22:14:00,44.9,38.5,30.12,NW,311,0.0,3.0,78,0.00,,OVC015,0.00,0.00,VWS V14.00,2013-04-25 03:14:00,
2013-04-24 22:15:00,44.9,38.5,30.12,NW,311,3.0,3.0,78,0.00,,OVC015,0.00,0.00,VWS V14.00,2013-04-25 03:15:00,
2013-04-24 22:16:00,44.7,38.6,30.12,NW,305,5.0,5.0,79,0.00,,OVC015,0.00,0.00,VWS V14.00,2013-04-25 03:16:00,
2013-04-24 22:19:00,44.6,38.5,30.12,NW,321,4.0,4.0,79,0.00,,OVC015,0.00,0.00,VWS V14.00,2013-04-25 03:19:00,
2013-04-24 22:20:00,44.6,38.5,30.12,NW,319,4.0,5.0,79,0.00,,OVC015,0.00,0.00,VWS V14.00,2013-04-25 03:20:00,
2013-04-24 22:21:00,44.5,38.4,30.12,NNW,327,0.0,5.0,79,0.00,,OVC015,0.00,0.00,VWS V14.00,2013-04-25 03:21:00,
2013-04-24 22:24:00,44.4,38.6,30.12,NW,311,0.0,4.0,80,0.00,,OVC015,0.00,0.00,VWS V14.00,2013-04-25 03:24:00,
2013-04-24 22:25:00,44.4,38.6,30.12,NW,311,2.0,4.0,80,0.00,,OVC015,0.00,0.00,VWS V14.00,2013-04-25 03:25:00,
2013-04-24 22:26:00,44.4,38.6,30.12,NW,311,1.0,4.0,80,0.00,,OVC015,0.00,0.00,VWS V14.00,2013-04-25 03:26:00,
2013-04-24 22:27:00,44.4,38.6,30.12,NW,311,2.0,4.0,80,0.00,,OVC015,0.00,0.00,VWS V14.00,2013-04-25 03:27:00,
2013-04-24 22:29:00,44.4,38.6,30.12,NW,309,4.0,5.0,80,0.00,,OVC015,0.00,0.00,VWS V14.00,2013-04-25 03:29:00,
2013-04-24 22:30:00,44.4,38.6,30.12,NW,305,3.0,6.0,80,0.00,,OVC015,0.00,0.00,VWS V14.00,2013-04-25 03:30:00,
2013-04-24 22:31:00,44.4,38.9,30.12,WNW,300,2.0,5.0,81,0.00,,OVC015,0.00,0.00,VWS V14.00,2013-04-25 03:31:00,
2013-04-24 22:32:00,44.3,38.8,30.12,NW,306,6.0,8.0,81,0.00,,OVC015,0.00,0.00,VWS V14.00,2013-04-25 03:32:00,
2013-04-24 22:35:00,44.4,38.6,30.12,NW,314,0.0,6.0,80,0.00,,OVC015,0.00,0.00,VWS V14.00,2013-04-25 03:35:00,
2013-04-24 22:36:00,44.4,38.3,30.12,WNW,299,5.0,6.0,79,0.00,,OVC015,0.00,0.00,VWS V14.00,2013-04-25 03:36:00,
2013-04-24 22:37:00,44.4,38.0,30.13,WNW,294,8.0,10.0,78,0.00,,OVC015,0.00,0.00,VWS V14.00,2013-04-25 03:37:00,
2013-04-24 22:40:00,44.4,38.0,30.13,WNW,295,1.0,6.0,78,0.00,,OVC015,0.00,0.00,VWS V14.00,2013-04-25 03:40:00,
2013-04-24 22:41:00,44.5,38.1,30.13,NW,317,7.0,7.0,78,0.00,,OVC015,0.00,0.00,VWS V14.00,2013-04-25 03:41:00,
2013-04-24 22:42:00,44.5,38.1,30.13,WNW,287,3.0,8.0,78,0.00,,OVC015,0.00,0.00,VWS V14.00,2013-04-25 03:42:00,
2013-04-24 22:45:00,44.4,37.3,30.13,WNW,282,6.0,7.0,76,0.00,,OVC015,0.00,0.00,VWS V14.00,2013-04-25 03:45:00,
2013-04-24 22:46:00,44.5,37.1,30.14,West,275,5.0,7.0,75,0.00,,OVC015,0.00,0.00,VWS V14.00,2013-04-25 03:46:00,
2013-04-24 22:47:00,44.4,36.7,30.14,NW,306,4.0,7.0,74,0.00,,OVC015,0.00,0.00,VWS V14.00,2013-04-25 03:47:00,
2013-04-24 22:48:00,44.4,36.7,30.14,WNW,300,4.0,7.0,74,0.00,,OVC015,0.00,0.00,VWS V14.00,2013-04-25 03:48:00,
2013-04-24 22:50:00,44.4,36.7,30.14,WNW,295,5.0,8.0,74,0.00,,OVC015,0.00,0.00,VWS V14.00,2013-04-25 03:50:00,
2013-04-24 22:51:00,44.4,36.7,30.14,WNW,291,8.0,8.0,74,0.00,,OVC015,0.00,0.00,VWS V14.00,2013-04-25 03:51:00,
2013-04-24 22:52:00,44.4,36.7,30.14,NW,310,5.0,10.0,74,0.00,,OVC015,0.00,0.00,VWS V14.00,2013-04-25 03:52:00,
2013-04-24 22:53:00,44.4,36.7,30.14,WNW,294,4.0,10.0,74,0.00,,OVC015,0.00,0.00,VWS V14.00,2013-04-25 03:53:00,
2013-04-24 22:55:00,44.4,36.7,30.14,NNW,336,5.0,10.0,74,0.00,,OVC015,0.00,0.00,VWS V14.00,2013-04-25 03:55:00,
2013-04-24 22:56:00,44.4,36.7,30.14,NW,319,4.0,11.0,74,0.00,,OVC015,0.00,0.00,VWS V14.00,2013-04-25 03:56:00,
2013-04-24 22:57:00,44.4,36.7,30.14,West,269,4.0,11.0,74,0.00,,OVC015,0.00,0.00,VWS V14.00,2013-04-25 03:57:00,
2013-04-24 22:58:00,44.4,36.7,30.14,NW,316,5.0,11.0,74,0.00,,OVC015,0.00,0.00,VWS V14.00,2013-04-25 03:58:00,
2013-04-24 23:00:00,44.4,36.7,30.14,NW,304,4.0,11.0,74,0.00,,OVC015,0.00,0.00,VWS V14.00,2013-04-25 04:00:00,
2013-04-24 23:01:00,44.4,36.7,30.14,NW,316,8.0,9.0,74,0.00,,OVC015,0.00,0.00,VWS V14.00,2013-04-25 04:01:00,
2013-04-24 23:05:00,44.3,36.5,30.14,NW,308,5.0,9.0,74,0.00,,OVC015,0.00,0.00,VWS V14.00,2013-04-25 04:05:00,
2013-04-24 23:06:00,44.2,36.5,30.14,NW,311,5.0,7.0,74,0.00,,OVC015,0.00,0.00,VWS V14.00,2013-04-25 04:06:00,
2013-04-24 23:10:00,44.0,36.3,30.14,NW,309,6.0,10.0,74,0.00,,OVC015,0.00,0.00,VWS V14.00,2013-04-25 04:10:00,
2013-04-24 23:11:00,43.9,36.2,30.14,WNW,296,4.0,10.0,74,0.00,,OVC015,0.00,0.00,VWS V14.00,2013-04-25 04:11:00,
2013-04-24 23:12:00,43.9,36.2,30.14,NW,309,3.0,10.0,74,0.00,,OVC015,0.00,0.00,VWS V14.00,2013-04-25 04:12:00,
2013-04-24 23:15:00,43.7,36.0,30.14,West,269,5.0,10.0,74,0.00,,OVC015,0.00,0.00,VWS V14.00,2013-04-25 04:15:00,
2013-04-24 23:16:00,43.6,35.5,30.14,NW,321,8.0,16.0,73,0.00,,OVC015,0.00,0.00,VWS V14.00,2013-04-25 04:16:00,
2013-04-24 23:17:00,43.5,35.4,30.14,NW,308,7.0,16.0,73,0.00,,OVC015,0.00,0.00,VWS V14.00,2013-04-25 04:17:00,
2013-04-24 23:20:00,43.4,35.3,30.14,NW,304,7.0,16.0,73,0.00,,OVC015,0.00,0.00,VWS V14.00,2013-04-25 04:20:00,
2013-04-24 23:21:00,43.2,34.8,30.15,WNW,302,8.0,15.0,72,0.00,,OVC015,0.00,0.00,VWS V14.00,2013-04-25 04:21:00,
2013-04-24 23:22:00,43.2,34.8,30.15,WNW,289,4.0,15.0,72,0.00,,OVC015,0.00,0.00,VWS V14.00,2013-04-25 04:22:00,
2013-04-24 23:25:00,43.1,34.7,30.15,NNW,332,7.0,15.0,72,0.00,,OVC015,0.00,0.00,VWS V14.00,2013-04-25 04:25:00,
2013-04-24 23:26:00,43.0,34.6,30.14,WNW,290,7.0,17.0,72,0.00,,OVC015,0.00,0.00,VWS V14.00,2013-04-25 04:26:00,
2013-04-24 23:27:00,42.9,34.5,30.15,West,264,7.0,17.0,72,0.00,,OVC015,0.00,0.00,VWS V14.00,2013-04-25 04:27:00,
2013-04-24 23:28:00,42.9,34.5,30.15,WNW,292,13.0,17.0,72,0.00,,OVC015,0.00,0.00,VWS V14.00,2013-04-25 04:28:00,
2013-04-24 23:30:00,42.9,34.5,30.15,WNW,286,12.0,17.0,72,0.00,,OVC015,0.00,0.00,VWS V14.00,2013-04-25 04:30:00,
2013-04-24 23:32:00,42.7,34.7,30.14,NW,308,4.0,13.0,73,0.00,,OVC015,0.00,0.00,VWS V14.00,2013-04-25 04:32:00,
2013-04-24 23:33:00,42.7,34.7,30.14,WNW,301,5.0,13.0,73,0.00,,OVC015,0.00,0.00,VWS V14.00,2013-04-25 04:33:00,
2013-04-24 23:35:00,42.7,34.7,30.14,WNW,295,3.0,13.0,73,0.00,,OVC015,0.00,0.00,VWS V14.00,2013-04-25 04:35:00,
2013-04-24 23:37:00,42.5,34.8,30.15,WNW,300,7.0,9.0,74,0.00,,OVC015,0.00,0.00,VWS V14.00,2013-04-25 04:37:00,
2013-04-24 23:38:00,42.4,34.7,30.15,WNW,289,8.0,9.0,74,0.00,,OVC015,0.00,0.00,VWS V14.00,2013-04-25 04:38:00,
2013-04-24 23:40:00,42.4,34.7,30.15,NW,312,7.0,9.0,74,0.00,,OVC015,0.00,0.00,VWS V14.00,2013-04-25 04:40:00,
2013-04-24 23:42:00,42.2,34.5,30.15,WNW,299,6.0,12.0,74,0.00,,OVC015,0.00,0.00,VWS V14.00,2013-04-25 04:42:00,
2013-04-24 23:43:00,42.2,34.9,30.15,NNW,342,8.0,12.0,75,0.00,,OVC015,0.00,0.00,VWS V14.00,2013-04-25 04:43:00,
2013-04-24 23:45:00,42.1,34.8,30.15,WNW,292,8.0,14.0,75,0.00,,OVC015,0.00,0.00,VWS V14.00,2013-04-25 04:45:00,
2013-04-24 23:47:00,42.0,34.7,30.16,WNW,302,8.0,10.0,75,0.00,,OVC015,0.00,0.00,VWS V14.00,2013-04-25 04:47:00,
2013-04-24 23:48:00,41.9,34.6,30.16,WNW,299,5.0,10.0,75,0.00,,OVC015,0.00,0.00,VWS V14.00,2013-04-25 04:48:00,
2013-04-24 23:50:00,41.8,34.5,30.16,WNW,290,9.0,10.0,75,0.00,,OVC015,0.00,0.00,VWS V14.00,2013-04-25 04:50:00,
2013-04-24 23:52:00,41.6,34.6,30.16,WNW,296,4.0,13.0,76,0.00,,OVC015,0.00,0.00,VWS V14.00,2013-04-25 04:52:00,
2013-04-24 23:53:00,41.6,34.6,30.16,WNW,301,3.0,13.0,76,0.00,,OVC015,0.00,0.00,VWS V14.00,2013-04-25 04:53:00,
2013-04-24 23:54:00,41.5,34.5,30.16,WNW,296,4.0,13.0,76,0.00,,OVC015,0.00,0.00,VWS V14.00,2013-04-25 04:54:00,
2013-04-24 23:55:00,41.5,34.5,30.16,WNW,296,4.0,13.0,76,0.00,,OVC015,0.00,0.00,VWS V14.00,2013-04-25 04:55:00,
2013-04-24 23:57:00,41.4,34.4,30.16,WNW,288,3.0,8.0,76,0.00,,OVC015,0.00,0.00,VWS V14.00,2013-04-25 04:57:00,
2013-04-24 23:58:00,41.3,34.7,30.17,WNW,288,9.0,11.0,77,0.00,,OVC015,0.00,0.00,VWS V14.00,2013-04-25 04:58:00,
2013-04-24 23:59:00,41.2,34.5,30.17,NW,305,4.0,11.0,77,0.00,,OVC015,0.00,0.00,VWS V14.00,2013-04-25 04:59:00,